GFSFLT2_sfc_temp_021.txt.gz
Temp
75 76 74 69 69 69 69 69 69 69 69 69 69 68 68 69 69 69 69 69 69 68 68 67 67 66 66 65 65 65 74 75
74 75 75 74 74 68 68 68 68 68 68 68 67 67 67 67 68 68 68 68 68 67 66 66 65 65 64 64 63 65 73 75
73 75 74 73 74 73 69 68 68 68 68 67 67 74 73 72 67 67 67 67 66 66 65 64 63 63 63 63 64 73 73 74
74 73 73 73 75 73 73 73 75 74 74 72 74 71 73 71 69 66 66 65 64 64 63 62 65 71 71 64 72 71 73 72
73 72 72 72 73 75 75 75 74 74 71 72 71 71 71 72 72 71 71 66 70 67 68 68 66 68 69 68 69 70 72 73
74 72 70 70 73 74 74 73 73 73 73 70 71 71 69 69 70 70 69 70 68 68 67 66 66 65 66 66 67 69 72 72
73 70 70 70 69 72 71 71 72 73 72 70 71 70 69 70 69 69 69 69 68 67 67 66 65 65 66 66 66 67 67 71
72 71 70 70 70 69 70 71 71 71 71 70 68 69 68 69 68 68 68 68 68 66 65 66 65 65 64 64 64 66 67 66
70 70 70 69 69 69 70 71 69 70 70 68 68 68 68 67 68 68 69 68 66 65 64 64 64 63 63 63 63 64 64 64
71 70 70 69 68 69 70 70 69 69 68 68 67 67 67 66 67 67 68 66 66 65 64 64 63 63 64 65 65 64 63 64
70 69 70 69 68 69 68 67 68 69 68 68 67 66 66 66 67 67 66 66 64 64 63 62 63 63 64 64 64 64 64 65
70 69 69 67 68 66 68 67 68 67 68 68 66 67 65 65 66 65 65 64 64 63 61 62 63 63 64 63 63 63 64 63
68 69 68 68 67 66 68 66 67 68 68 66 65 66 65 64 65 65 64 62 63 62 62 59 60 61 59 60 61 61 60 62
67 67 65 65 66 65 65 64 66 65 65 65 65 64 64 63 63 64 63 62 61 61 59 60 60 61 59 59 56 60 59 59
64 65 65 64 63 65 65 65 65 66 67 67 67 65 64 63 62 62 62 61 61 61 60 58 59 60 59 59 54 53 59 58
63 63 64 64 63 63 61 61 60 63 62 63 63 63 62 62 61 60 60 61 59 60 61 59 58 58 56 57 56 56 54 54
62 63 63 62 61 61 60 59 60 60 60 59 60 61 61 60 59 58 58 59 58 57 57 55 57 53 56 56 53 53 52 52
61 62 62 62 61 60 58 56 56 57 57 58 59 59 59 56 55 54 54 54 53 54 53 52 53 52 51 52 50 51 50 48
61 61 60 60 59 57 57 56 55 56 57 57 56 56 56 53 52 52 51 51 51 51 50 49 49 46 43 41 41 40 39 37
60 59 59 59 58 57 57 57 57 57 56 55 54 53 52 50 50 51 50 50 50 50 45 44 42 39 38 37 36 37 39 39

GFSFLT2_sfc_temp_024.txt.gz
Temp
86 85 77 70 70 70 70 70 70 70 70 70 69 69 69 70 70 70 70 70 69 68 68 67 67 67 66 66 65 66 81 85
85 85 85 83 82 69 69 69 69 69 69 68 68 68 68 68 69 69 69 68 68 67 66 66 66 65 65 64 65 67 82 82
84 85 83 83 85 78 70 69 69 68 70 68 69 84 81 78 68 68 68 67 67 66 65 64 64 64 64 64 64 82 80 83
85 82 82 82 86 83 83 83 86 84 83 81 85 81 81 78 72 67 66 66 65 65 64 64 66 81 79 67 81 78 79 80
84 82 81 81 84 86 87 86 86 85 81 81 81 80 81 80 80 79 79 69 79 75 75 79 75 77 78 77 78 76 80 81
85 82 81 81 85 87 87 85 85 83 84 79 79 80 79 78 80 79 77 79 76 77 78 74 73 74 74 74 74 76 80 81
84 82 80 82 79 84 83 81 83 82 82 81 79 79 77 78 77 78 78 79 78 76 76 76 74 73 74 73 74 74 74 78
84 82 81 81 81 80 82 82 83 82 82 81 77 77 77 77 77 77 78 78 78 76 75 75 75 74 73 72 73 75 74 73
83 82 81 80 80 81 82 84 81 82 82 78 77 76 76 75 77 77 78 78 75 74 74 74 73 74 72 72 72 72 73 72
83 82 81 81 81 81 82 84 81 81 80 80 77 75 75 75 76 76 77 76 76 75 74 73 73 73 72 74 73 73 72 71
82 82 81 81 80 81 79 77 79 82 80 80 77 76 75 74 75 75 75 75 75 74 73 72 71 72 73 73 73 73 72 73
81 82 80 78 80 79 80 79 80 80 80 80 77 77 75 73 74 74 74 73 73 73 71 73 72 71 73 73 72 73 73 72
77 78 77 79 79 77 78 77 78 78 80 77 74 75 74 72 73 73 73 72 71 71 71 69 69 71 67 68 70 70 69 71
75 74 74 75 79 76 75 73 76 75 76 75 75 73 72 72 70 71 71 70 69 68 68 67 68 70 65 65 62 67 69 69
74 74 73 72 73 76 77 77 76 75 74 74 73 70 70 70 70 69 68 68 68 68 67 66 64 67 68 63 60 59 65 71
73 73 73 72 71 72 69 70 68 69 69 71 70 70 69 69 68 67 66 67 66 66 68 65 65 62 66 68 65 64 59 57
71 73 72 71 70 69 68 66 69 69 67 66 67 69 68 69 67 64 64 65 64 63 62 62 63 62 62 62 59 61 61 54
70 71 71 69 68 66 63 62 63 65 65 64 66 66 67 67 66 63 62 61 60 60 59 58 58 57 56 55 53 49 49 50
70 70 69 69 67 67 66 65 64 63 63 63 61 62 63 62 61 60 60 58 57 55 52 50 47 45 43 42 41 40 39 38
68 68 68 68 67 66 66 65 65 64 62 61 60 60 60 60 58 58 57 56 54 52 51 45 42 41 39 39 39 39 39 39

GFSFLT2_sfc_temp_027.txt.gz
Temp
88 85 76 72 70 70 70 70 70 70 70 70 70 70 70 70 70 70 70 70 69 68 68 67 67 67 67 67 67 68 76 85
90 89 88 85 81 70 70 70 70 70 69 69 69 69 69 70 69 69 69 69 68 68 67 66 66 66 66 66 67 67 78 84
89 90 87 86 87 78 70 69 70 69 70 69 71 82 82 77 68 68 68 68 67 67 66 66 66 66 66 67 66 80 82 84
88 86 85 86 90 86 85 85 86 85 84 83 86 82 81 79 73 68 68 68 67 67 66 66 66 80 76 68 77 81 80 82
89 85 85 85 86 88 89 89 88 86 83 83 83 82 83 82 81 77 75 68 79 71 75 77 79 78 79 78 79 79 80 82
88 86 84 84 88 89 88 88 87 86 86 82 81 82 81 80 81 81 80 82 79 79 79 78 76 76 76 75 76 77 80 81
88 87 84 85 83 86 85 84 86 84 84 83 82 80 79 79 79 79 80 80 80 79 79 78 77 76 76 75 75 76 76 77
89 87 85 85 84 83 83 84 85 84 85 83 80 79 78 78 78 79 79 80 80 78 77 77 76 77 75 75 74 75 77 76
88 86 86 83 84 84 85 86 83 84 84 82 80 79 78 77 78 77 79 79 77 77 77 77 76 77 75 75 75 73 74 74
89 88 86 84 84 85 86 86 83 83 83 83 80 78 78 77 77 77 78 77 77 76 76 75 75 75 74 75 75 75 74 73
87 87 85 84 84 84 83 81 82 84 84 83 81 79 78 76 76 76 76 76 75 75 75 75 73 74 74 75 75 74 74 76
84 85 84 83 83 83 83 83 83 84 83 82 79 78 77 75 75 75 75 75 74 75 73 74 73 73 74 74 74 75 75 74
82 82 80 81 82 80 80 79 80 80 81 79 77 77 75 74 74 74 74 72 72 72 72 70 70 72 68 70 71 72 72 73
79 79 78 79 81 78 77 76 78 78 79 77 77 75 73 72 71 71 71 70 69 69 69 68 69 71 64 64 61 66 72 72
77 77 77 75 76 80 78 78 78 77 77 76 75 73 72 71 70 69 68 69 68 68 68 66 65 68 68 63 57 57 65 72
77 76 76 75 74 75 72 72 71 73 72 72 72 72 71 71 70 69 67 66 65 66 68 66 65 62 66 68 63 60 54 55
74 76 75 74 73 71 70 69 70 71 71 69 68 70 70 70 69 67 65 64 64 63 62 62 63 61 61 57 55 56 58 49
74 74 75 74 73 71 69 67 66 67 67 66 67 66 67 67 66 64 63 62 62 61 58 56 54 54 54 52 48 45 47 42
73 74 73 74 72 70 69 68 66 66 65 64 62 62 63 63 63 61 62 60 56 55 54 52 51 48 45 43 41 39 39 38
72 71 71 72 71 69 69 68 67 65 64 62 61 61 60 61 61 57 54 50 50 50 47 48 47 42 41 42 43 43 44 41

GFSFLT2_sfc_temp_030.txt.gz
Temp
78 74 71 70 70 70 70 70 70 70 70 70 70 70 70 70 70 70 70 69 69 69 68 68 68 68 67 67 67 67 65 71
82 78 77 74 71 69 69 69 69 69 69 69 69 69 69 69 69 69 69 69 69 68 67 67 67 67 67 67 67 66 66 70
82 82 80 78 75 72 69 70 69 69 69 69 68 73 71 73 68 68 69 68 68 68 68 67 66 66 66 66 66 66 69 70
81 79 79 80 86 72 73 76 73 72 73 72 74 74 74 76 71 68 68 68 68 67 67 66 66 66 65 65 64 68 69 69
81 78 79 79 78 78 78 77 76 75 76 75 75 74 72 70 67 68 66 67 67 67 66 64 69 67 67 66 67 68 66 69
81 79 78 78 77 77 77 77 76 75 75 75 72 71 71 70 69 69 68 68 68 68 67 69 68 69 68 67 67 66 66 67
81 79 78 77 76 75 75 74 75 74 75 75 73 70 69 69 69 69 68 69 68 67 67 67 67 68 68 67 67 66 67 66
81 80 78 78 77 75 74 74 75 74 74 72 73 70 68 68 68 68 68 68 67 66 66 65 65 66 66 67 66 66 65 65
81 80 79 78 77 76 75 75 75 73 74 73 73 72 69 69 67 67 67 67 67 66 66 65 65 67 66 66 65 64 64 64
83 86 79 77 77 76 76 76 73 73 73 72 72 72 71 67 66 66 67 66 66 64 64 63 63 63 62 63 64 64 64 64
81 81 79 78 76 76 74 74 73 73 72 72 71 71 70 67 65 65 66 65 64 64 64 62 61 62 64 63 63 62 63 69
78 80 78 77 74 74 73 73 73 72 72 70 69 69 69 66 65 64 65 64 63 62 61 62 61 61 67 67 65 65 64 60
76 74 71 72 72 70 69 67 68 69 71 70 70 69 68 65 64 64 62 61 60 61 60 59 60 60 59 60 61 63 62 65
74 73 71 72 71 70 68 67 69 69 70 69 70 68 66 66 62 61 61 59 58 57 57 57 58 58 56 57 53 57 60 64
72 72 71 69 68 71 69 68 67 67 67 67 66 66 66 64 62 60 59 58 56 55 56 55 55 56 56 54 50 49 54 58
71 72 72 70 68 67 64 63 63 63 64 64 64 64 63 62 61 59 57 57 55 55 59 54 53 51 54 57 52 49 45 46
69 71 72 70 68 66 63 61 61 62 61 60 60 60 60 61 59 57 55 55 54 53 51 49 50 48 47 46 46 46 48 45
68 70 71 70 68 66 63 61 60 58 58 57 57 57 57 57 58 55 54 53 51 50 49 49 49 47 45 45 43 41 40 39
69 69 68 68 66 65 63 61 59 58 57 56 55 55 54 54 54 51 49 48 48 48 47 46 46 44 42 41 41 40 40 39
67 67 66 66 64 63 62 60 59 58 58 55 53 53 52 50 49 48 47 47 46 46 45 45 45 43 42 42 41 42 42 41

GFSFLT2_sfc_temp_033.txt.gz
Temp
66 68 70 69 69 69 69 69 69 70 70 70 70 69 69 70 70 70 69 69 69 68 68 67 67 67 67 67 66 66 62 63
67 66 67 65 66 68 68 68 68 69 69 69 68 68 68 69 69 69 69 69 69 68 68 67 67 67 66 66 65 66 62 63
70 68 68 66 65 68 68 69 68 68 68 68 67 66 67 68 67 68 69 69 68 68 68 67 66 66 66 66 66 61 63 64
72 70 69 68 76 66 66 68 67 66 67 66 66 66 66 70 67 68 68 68 68 68 67 67 66 62 62 65 61 62 63 64
72 72 72 71 71 65 65 66 65 65 67 68 68 68 67 65 62 63 62 65 63 65 63 62 63 61 63 61 62 63 61 63
72 71 72 70 68 68 67 67 67 66 70 69 66 64 64 63 63 63 61 62 61 61 60 62 61 64 65 64 63 63 62 61
71 71 70 70 69 66 68 67 67 68 67 68 66 64 63 63 63 63 63 63 62 61 62 63 63 63 64 64 63 63 63 62
72 71 70 70 67 68 67 67 67 67 66 66 67 64 63 63 62 63 62 62 61 61 61 61 61 62 63 63 63 62 63 62
73 72 71 70 69 69 67 67 68 66 65 66 66 66 63 63 61 61 61 61 61 61 61 60 59 61 61 61 62 62 61 62
74 79 68 66 67 68 68 67 65 65 64 65 66 66 66 62 61 60 61 61 61 59 59 59 58 57 57 59 60 60 61 61
68 72 68 66 64 64 66 67 67 65 64 63 64 65 64 61 60 60 60 59 59 58 58 56 56 56 59 59 57 57 58 64
65 68 64 64 63 63 63 63 63 63 62 63 65 64 64 60 59 59 59 57 56 55 54 55 55 55 62 62 58 56 57 56
66 66 61 60 60 60 59 60 61 61 62 65 65 63 62 60 58 58 57 56 54 55 53 52 54 53 53 56 54 55 55 56
63 64 63 63 61 60 60 59 61 61 61 62 62 61 61 61 56 55 55 53 53 52 51 49 50 51 48 50 47 51 53 55
63 63 63 61 61 60 60 59 59 58 58 57 58 58 58 56 55 53 52 52 50 49 50 48 46 48 48 45 43 41 46 51
62 63 63 63 62 59 57 54 54 55 55 55 56 56 56 56 54 52 51 50 49 48 49 46 45 42 45 49 44 45 41 41
61 62 62 62 60 59 56 55 55 55 55 54 54 54 54 54 54 51 48 47 46 45 45 45 48 47 45 44 44 41 39 35
60 61 61 60 59 57 56 54 55 53 53 51 51 51 51 50 50 47 46 45 44 43 43 45 42 43 43 41 40 38 39 38
60 59 59 59 58 56 54 54 53 51 50 49 48 48 46 45 45 44 43 43 43 43 44 42 41 40 41 41 39 37 40 39
58 59 60 59 56 55 54 53 52 51 51 50 48 47 44 44 44 43 43 43 42 41 41 41 40 40 38 42 41 41 41 39

GFSFLT2_sfc_temp_039.txt.gz
Temp
64 66 68 69 69 69 68 69 69 69 70 70 70 69 69 70 70 70 69 69 69 69 68 68 68 68 67 66 65 65 59 60
62 63 64 63 64 67 67 68 68 68 69 68 68 68 68 69 69 69 69 69 69 69 68 68 67 67 66 65 65 64 59 59
61 62 63 62 63 66 67 68 68 68 68 67 65 64 64 65 66 68 69 69 68 68 68 67 66 65 64 65 65 59 59 59
61 62 62 63 70 64 63 65 64 64 64 64 63 62 63 66 65 67 68 68 68 68 67 66 65 59 59 62 59 60 60 60
64 63 62 63 65 62 62 62 62 62 63 62 62 63 62 62 61 61 60 63 60 61 61 60 60 59 58 58 59 59 58 59
66 64 63 62 63 63 63 62 62 61 63 63 61 60 60 60 60 59 59 59 58 58 58 59 59 59 59 59 59 58 58 59
66 65 64 65 62 62 61 61 62 63 63 63 62 60 59 59 59 58 57 57 57 57 57 57 57 58 58 58 59 59 59 58
68 66 64 63 61 61 61 62 63 63 63 63 62 61 59 58 58 59 58 57 57 56 55 55 55 56 57 57 58 57 58 58
66 63 63 62 62 62 62 62 63 61 62 62 62 61 59 59 58 57 56 56 56 55 55 54 54 55 54 55 56 57 56 57
65 69 62 61 61 63 64 62 60 60 60 60 61 61 60 57 56 55 55 55 54 53 52 52 51 51 50 52 53 54 55 55
60 61 62 62 61 61 60 60 57 57 57 58 59 59 58 55 54 53 54 53 52 52 51 50 49 49 52 51 50 50 51 55
59 61 62 61 59 58 57 58 58 58 57 58 57 58 59 57 54 55 55 54 50 49 49 49 48 47 53 52 48 49 48 48
59 60 59 57 56 56 54 53 53 54 59 60 59 59 57 55 55 52 50 50 48 49 47 46 46 45 44 46 46 47 46 46
56 57 57 56 57 55 55 53 54 54 55 54 54 53 53 53 50 51 53 52 49 46 45 44 44 43 42 41 39 44 43 49
57 56 57 57 56 55 54 54 53 52 51 50 51 52 52 50 50 48 47 46 44 43 43 42 41 42 42 41 36 34 38 43
56 57 57 57 56 55 54 52 50 49 49 49 49 50 50 50 48 46 45 44 43 42 46 42 41 40 41 44 40 38 33 32
54 55 55 55 54 53 52 50 51 52 52 50 50 49 49 49 47 45 43 43 42 41 40 40 40 39 38 37 36 36 35 34
53 55 54 53 52 52 51 51 51 50 49 48 47 46 45 44 45 43 43 42 41 40 40 39 38 38 38 36 39 38 38 37
53 52 51 52 52 51 50 49 48 47 46 45 45 43 42 43 43 42 41 41 41 40 39 38 37 36 35 35 37 37 39 39
52 51 52 51 51 49 48 49 47 46 45 44 43 43 43 43 42 41 41 41 40 40 37 37 37 36 35 36 36 37 38 40

GFSFLT2_sfc_temp_042.txt.gz
Temp
64 66 68 69 69 69 68 69 69 69 70 70 70 69 69 69 69 70 70 70 70 69 68 68 68 68 67 66 65 65 60 61
62 63 63 63 64 67 67 68 68 68 69 69 68 68 68 69 68 69 69 69 69 69 68 68 67 66 66 65 65 64 59 61
61 61 62 62 62 66 67 68 68 68 68 67 65 63 64 64 66 68 69 69 69 68 68 67 66 64 64 64 64 59 59 60
61 61 61 61 67 63 62 64 63 63 64 64 63 62 62 65 65 67 68 68 67 66 66 65 63 59 59 61 59 60 59 60
61 61 61 61 64 61 61 61 61 62 63 62 62 62 61 61 60 60 59 63 59 60 59 59 59 58 58 58 58 58 58 59
63 62 61 60 61 61 61 61 61 60 61 62 60 59 59 59 60 59 58 58 57 57 56 57 57 58 58 58 58 58 58 58
63 62 61 61 61 60 60 60 61 61 61 62 61 59 59 58 58 57 56 56 55 55 55 56 56 57 57 57 57 57 58 57
64 63 62 62 60 60 59 60 60 61 62 62 61 59 58 57 56 56 55 55 55 54 54 54 53 54 55 55 56 56 56 57
63 62 62 60 60 60 60 61 63 62 62 61 61 60 58 57 55 54 54 54 54 53 53 53 52 54 53 54 54 54 54 55
62 64 60 59 59 60 61 61 58 58 58 58 59 58 57 55 54 52 53 53 52 51 51 52 51 50 50 51 51 52 52 52
60 61 60 59 60 57 57 58 56 55 56 56 56 56 57 56 53 52 53 54 54 54 52 49 48 48 50 50 49 49 49 53
60 60 60 58 58 58 57 56 55 55 54 56 59 58 58 55 55 55 53 52 49 50 49 49 47 46 50 50 48 48 48 47
60 60 59 59 57 55 54 52 52 52 54 56 55 55 54 52 50 49 49 49 47 48 46 45 45 44 43 44 45 46 46 46
57 56 56 56 56 54 53 51 50 51 51 51 52 51 51 51 49 48 47 47 45 44 43 42 43 43 41 40 38 42 43 47
56 57 57 56 55 53 52 51 50 50 49 48 49 50 50 49 48 47 45 45 43 42 42 41 39 41 41 40 36 34 37 42
54 55 55 55 54 54 52 50 49 48 48 47 48 49 48 48 46 45 43 43 42 41 43 40 39 38 40 43 40 38 34 34
53 54 54 53 53 52 50 49 48 49 48 48 47 46 46 46 45 43 43 43 42 41 40 39 39 38 37 37 37 36 35 36
53 55 53 53 51 51 50 50 49 47 47 46 45 43 43 44 45 43 42 42 41 40 39 38 38 37 37 41 40 38 38 37
54 53 52 52 51 49 48 47 47 46 45 44 44 43 42 43 43 41 40 40 40 39 38 37 37 36 35 35 36 36 37 38
53 52 50 49 49 48 48 48 47 46 45 44 43 42 42 42 41 41 40 40 39 38 37 36 36 36 35 35 35 36 38 38

GFSFLT2_sfc_temp_048.txt.gz
Temp
82 82 76 70 70 70 70 70 70 70 71 70 70 70 70 71 71 71 71 71 70 70 69 69 68 67 67 66 66 67 84 85
84 83 82 81 79 69 69 69 69 69 69 69 69 69 69 70 70 70 70 70 70 70 69 68 67 66 66 66 66 68 84 85
81 82 81 81 82 76 70 69 69 69 70 68 69 82 81 78 69 69 70 69 69 68 68 67 67 67 66 66 67 84 83 84
80 79 78 80 82 79 79 80 82 81 81 79 84 81 82 80 73 68 69 68 68 67 67 68 71 85 84 75 83 81 83 82
79 77 77 78 78 81 82 83 81 81 79 81 80 81 82 84 81 83 82 72 84 80 81 84 78 80 81 79 79 80 82 82
79 77 76 77 80 82 81 82 82 82 82 79 81 77 79 78 81 80 79 82 79 81 82 77 78 77 76 76 76 78 80 80
79 78 77 77 77 79 80 80 82 81 83 81 81 80 76 78 77 80 80 80 80 79 79 78 77 76 75 75 75 75 75 78
79 78 78 79 79 77 78 78 80 80 79 77 74 74 69 70 73 77 80 78 78 77 74 75 75 75 75 74 73 75 75 74
78 78 79 78 77 77 76 75 76 76 74 72 73 72 71 70 73 75 73 74 72 75 74 74 74 73 72 71 74 74 74 72
78 76 75 73 73 74 72 70 65 64 68 69 67 67 67 69 72 66 70 71 72 72 71 71 71 71 71 72 72 73 72 71
75 73 70 66 61 60 60 60 62 65 67 68 66 66 68 68 69 69 71 72 70 69 69 67 66 68 69 69 69 71 70 73
74 70 65 61 60 60 59 60 65 67 69 71 72 72 71 72 71 69 71 70 69 66 64 66 66 66 66 66 67 68 69 69
71 68 66 63 62 62 64 68 69 71 75 72 72 72 70 69 72 70 69 66 64 64 64 63 63 64 60 64 65 67 65 67
72 72 71 73 74 76 75 74 76 75 74 70 70 69 68 69 68 68 66 66 64 62 61 60 62 63 57 57 57 62 67 66
75 75 75 75 76 75 74 72 73 73 72 72 69 68 68 67 66 66 65 65 63 61 61 58 57 60 60 55 51 51 55 61
76 75 76 74 74 74 72 75 73 71 73 71 72 67 67 67 66 65 64 63 61 61 62 58 58 55 58 60 57 54 46 46
73 74 73 72 71 72 72 69 70 71 72 67 67 67 66 66 65 63 63 63 62 59 58 57 58 55 55 55 55 54 54 46
71 71 71 70 70 70 69 67 66 69 68 66 67 67 67 65 65 64 63 62 60 59 58 57 56 55 55 53 48 44 43 42
71 71 69 69 69 68 67 66 65 65 64 66 64 65 65 65 64 62 62 61 59 58 57 55 55 53 53 51 51 50 49 47
70 70 68 68 67 66 66 66 69 67 65 64 64 64 63 63 62 61 60 59 58 57 56 55 54 53 52 51 51 51 50 48

GFSFLT2_sfc_temp_051.txt.gz
Temp
80 78 74 71 70 70 70 71 71 71 71 71 70 70 70 71 71 71 71 71 71 70 70 69 68 68 68 67 67 68 80 87
82 81 80 79 77 69 69 69 70 70 70 69 69 70 70 70 70 71 71 71 70 70 69 69 68 67 68 68 68 68 84 86
85 85 83 82 80 75 70 69 69 69 70 69 69 82 80 77 70 70 71 70 70 69 68 68 69 69 68 69 68 85 83 85
84 81 81 82 85 79 81 80 81 81 81 80 84 82 82 80 74 70 70 70 70 69 69 70 69 84 82 74 83 81 83 83
82 79 79 81 79 83 83 83 82 82 81 82 81 82 81 82 82 79 77 70 82 77 79 82 80 80 81 80 79 80 82 82
78 78 78 79 82 84 83 84 83 83 83 80 81 81 79 78 82 82 78 82 80 81 81 79 78 78 78 77 77 78 79 78
80 80 79 79 81 81 82 81 80 78 78 78 75 73 70 72 74 78 77 78 80 79 79 78 77 78 77 76 76 76 77 78
81 80 80 81 80 79 76 77 77 78 77 76 76 74 74 76 76 77 78 78 77 76 74 74 74 74 74 75 74 75 76 75
81 81 81 80 78 77 76 76 75 73 73 73 73 73 71 72 73 73 73 73 72 72 73 71 73 75 74 74 75 74 75 74
82 82 79 75 72 71 70 69 68 64 66 68 69 69 70 71 70 69 69 70 70 70 71 71 70 71 70 72 72 72 72 73
79 76 69 69 67 65 62 60 61 62 66 68 67 68 69 70 71 71 72 72 71 70 69 68 67 67 69 70 69 69 71 73
78 70 65 66 66 61 64 60 61 65 69 70 71 73 73 73 72 70 71 71 69 67 65 67 66 66 67 66 67 69 70 69
72 67 70 70 70 71 71 70 70 72 75 74 74 74 73 71 73 71 70 69 67 66 65 63 63 65 62 63 64 66 68 69
69 71 71 75 78 78 76 75 76 78 76 73 73 72 71 72 69 70 69 67 66 65 62 61 62 63 58 58 54 58 65 65
74 77 77 79 79 78 78 77 75 74 73 73 71 71 71 70 69 67 66 66 65 63 62 60 57 60 60 56 50 49 55 60
80 79 79 79 79 77 74 74 71 72 73 74 74 70 70 69 68 67 65 65 63 63 63 60 58 55 58 61 59 56 48 46
78 79 78 77 76 76 74 74 74 74 71 69 70 69 69 68 68 66 65 64 63 62 60 59 59 56 56 55 54 54 53 47
75 76 75 75 74 73 72 70 70 71 70 67 69 69 70 69 68 66 65 64 63 62 58 56 56 54 55 52 51 47 46 45
74 75 73 73 72 71 70 69 67 66 67 67 66 67 67 66 66 64 64 63 62 60 58 55 56 53 52 51 52 51 51 48
74 74 73 72 71 69 69 67 69 68 67 66 65 65 65 65 63 63 62 62 61 60 56 55 55 53 52 51 51 51 50 50

GFSFLT2_sfc_temp_054.txt.gz
Temp
74 73 71 70 70 70 70 70 70 70 70 70 70 70 70 70 70 71 71 71 71 70 70 69 69 69 69 68 68 68 67 74
75 74 73 72 71 69 69 69 69 69 69 69 69 69 69 70 70 70 71 71 70 70 70 69 69 69 69 69 68 67 67 72
75 75 74 73 72 70 69 69 69 69 69 69 67 72 71 71 70 70 70 70 70 70 70 69 69 68 69 69 68 71 71 72
78 76 75 75 78 71 71 72 71 71 73 70 71 73 72 76 71 69 70 70 70 69 69 69 68 70 67 67 69 71 71 71
74 74 75 75 73 74 74 72 73 73 74 75 75 74 73 70 68 66 67 68 71 68 68 70 71 70 69 68 69 69 67 69
74 74 73 72 74 74 74 74 74 73 73 73 69 67 68 66 67 70 70 70 70 71 69 72 70 71 71 69 68 67 67 68
74 73 73 73 73 73 71 71 70 69 70 71 69 68 66 67 67 69 69 70 68 68 67 67 66 68 67 68 68 67 67 67
75 74 74 75 72 71 71 70 69 69 69 69 69 67 67 67 66 65 64 65 66 65 65 64 64 65 66 67 67 66 66 65
75 74 75 73 72 71 70 69 67 66 66 66 66 66 66 66 64 63 63 63 63 63 63 63 62 65 63 65 64 64 63 63
77 79 73 70 68 69 67 65 63 63 64 64 65 65 65 64 62 61 62 63 62 61 60 60 59 59 58 59 60 61 62 62
72 70 66 65 62 62 61 61 62 61 63 63 63 64 65 63 62 62 62 62 61 60 57 56 55 56 59 58 56 57 59 65
69 66 63 63 63 62 62 63 62 62 64 65 65 67 67 64 63 62 63 61 59 57 55 56 54 54 61 59 54 55 58 58
66 64 65 65 64 63 65 64 65 65 67 68 68 67 67 64 63 62 61 59 57 57 55 53 52 53 50 52 51 55 54 55
66 68 66 68 70 70 69 67 66 67 67 66 66 66 65 65 62 60 59 57 57 55 53 50 50 51 48 47 44 48 51 55
70 70 70 71 73 71 70 69 66 66 65 64 65 66 66 64 62 59 57 56 54 53 53 51 47 49 50 45 43 40 46 49
71 72 72 74 72 70 67 66 64 64 64 65 65 65 64 64 62 59 57 56 54 53 55 50 49 46 48 53 47 45 40 38
73 74 74 72 72 70 67 67 65 65 65 64 64 63 63 63 61 59 57 55 54 53 53 51 48 46 46 44 44 43 43 39
71 72 72 71 70 69 68 64 62 61 60 59 61 61 61 61 62 58 56 55 54 54 52 50 48 47 46 45 43 40 40 38
70 71 70 69 68 67 65 62 61 61 62 59 58 58 57 57 57 55 54 54 53 53 51 49 47 45 44 43 44 43 44 43
70 70 69 68 66 64 63 63 61 60 59 59 57 56 56 57 55 54 54 53 52 51 50 48 47 44 45 44 43 44 44 43

GFSFLT2_sfc_temp_057.txt.gz
Temp
70 70 70 70 69 69 69 69 70 70 70 70 70 70 70 70 70 70 70 70 70 70 70 69 69 69 68 67 66 68 65 66
69 70 70 69 69 68 68 68 68 69 69 69 68 68 69 69 69 70 70 70 70 70 69 69 69 68 68 67 66 67 65 64
69 70 69 68 68 69 68 69 68 68 68 68 66 67 67 68 68 69 70 70 70 70 69 69 68 68 67 66 66 66 67 64
67 70 69 70 73 67 66 68 66 66 67 66 66 66 66 70 68 69 69 69 69 69 69 68 68 66 66 67 65 66 65 63
68 71 70 70 69 66 65 65 65 66 67 67 67 68 66 66 64 65 65 68 67 69 69 68 70 66 65 64 65 64 62 63
69 69 71 68 68 66 65 67 67 66 66 67 65 64 63 63 63 64 65 67 64 64 62 64 63 65 65 64 64 63 63 63
68 68 68 67 66 66 67 65 66 65 65 67 65 64 63 63 63 62 61 61 61 61 61 62 62 63 63 64 63 63 63 63
67 67 67 68 67 65 64 63 63 64 63 64 65 63 62 61 60 59 59 59 60 59 59 58 58 59 60 60 61 60 60 60
67 67 67 69 66 65 64 63 61 61 62 63 63 63 61 60 58 58 58 58 58 58 56 56 55 58 57 58 58 57 58 58
71 73 68 66 64 61 61 60 59 59 59 59 61 61 61 58 57 57 58 57 57 55 54 54 53 52 52 53 53 55 56 57
64 64 62 61 59 58 58 58 58 57 58 58 60 60 61 58 57 57 57 56 55 55 53 51 50 50 54 52 50 51 52 57
64 61 60 59 59 57 57 57 57 57 57 61 61 61 61 59 58 58 57 55 53 52 51 51 49 48 56 52 49 50 49 49
61 60 60 60 58 57 57 56 56 57 59 61 61 61 61 58 56 55 55 54 52 52 50 49 47 46 45 46 46 47 50 48
61 61 61 61 61 60 59 58 58 58 59 59 60 60 60 60 56 55 54 52 51 50 48 46 46 47 43 41 38 44 45 49
62 62 62 63 63 63 60 59 58 57 57 56 59 60 60 58 56 54 53 51 49 48 48 47 44 45 46 43 37 35 38 43
64 64 63 64 64 62 60 57 57 56 56 57 58 60 59 59 57 55 54 52 51 49 51 47 45 43 44 49 43 40 35 34
63 63 64 64 66 62 60 57 58 60 61 60 59 60 60 59 57 54 53 51 49 48 48 47 45 43 42 41 40 39 39 35
61 62 65 63 62 60 58 56 55 54 54 57 56 56 55 54 55 52 51 50 49 48 47 46 45 43 43 41 40 39 38 37
61 62 61 61 60 58 56 55 55 54 54 55 55 53 53 52 51 49 48 49 48 48 46 45 45 42 41 41 41 43 42 42
61 61 61 60 58 56 56 55 53 56 57 55 53 52 52 50 49 49 48 48 47 46 44 43 43 41 41 41 40 41 43 44

GFSFLT2_sfc_temp_060.txt.gz
Temp
68 69 72 69 69 69 69 69 69 70 70 70 70 70 70 70 70 70 70 70 70 70 70 69 70 69 68 67 66 67 63 63
67 69 69 68 68 68 68 68 68 69 69 69 68 68 69 69 69 70 70 70 70 70 70 69 69 68 67 66 66 66 62 62
68 67 67 67 67 68 68 69 68 68 68 68 65 65 66 68 68 69 70 70 70 70 69 68 67 66 66 66 66 63 62 61
67 67 67 68 71 66 65 68 65 66 66 65 66 65 65 68 67 69 69 69 69 68 68 68 67 64 63 65 63 63 62 61
66 68 68 67 66 64 63 63 63 64 65 65 65 66 65 64 63 64 64 68 65 66 66 64 64 63 62 61 62 61 59 60
65 66 66 65 66 65 63 63 63 64 64 65 63 62 62 62 62 61 61 62 62 61 60 61 61 62 61 61 60 59 58 58
66 67 64 63 63 63 63 63 63 63 64 64 63 62 61 60 59 61 59 59 59 58 58 59 58 59 59 59 59 58 58 57
66 66 65 66 63 63 61 62 62 62 63 63 63 62 60 58 58 57 56 57 57 56 55 54 54 55 56 56 56 55 55 55
66 64 66 65 63 63 60 62 62 61 61 61 61 61 59 58 56 56 56 56 55 54 54 53 52 54 53 53 53 53 54 54
67 70 65 64 62 60 60 59 58 58 59 59 60 59 59 57 55 55 55 54 53 52 52 51 49 49 49 49 49 51 52 52
64 63 61 60 59 58 57 57 57 56 57 57 58 58 58 56 55 54 55 53 52 53 49 49 47 47 51 48 48 48 48 53
64 62 59 58 58 57 57 56 55 56 56 57 58 58 59 56 55 54 54 52 51 50 49 48 46 46 53 50 46 46 46 46
62 60 59 59 57 56 55 54 55 55 56 59 59 58 57 55 54 53 52 51 50 50 48 47 45 44 43 43 43 45 45 45
60 61 60 60 60 57 57 56 55 56 56 57 58 57 56 55 53 52 52 50 49 48 47 44 44 44 43 39 38 40 43 47
60 60 60 61 61 60 57 56 55 54 54 54 56 57 57 56 55 52 51 49 48 47 46 45 43 43 43 42 37 34 36 41
61 61 61 61 60 59 57 54 54 53 53 54 55 57 56 56 54 52 50 49 48 46 48 45 43 42 42 46 41 39 34 32
60 60 60 61 61 59 58 54 54 54 54 54 55 55 55 56 53 51 49 48 47 46 46 45 43 42 40 40 38 37 36 34
59 59 60 61 59 58 56 55 53 53 52 52 54 54 54 53 52 49 48 47 46 45 44 44 43 41 41 39 39 37 36 34
58 59 58 57 56 55 54 53 53 53 52 54 54 53 52 52 51 47 46 46 46 45 43 42 42 40 40 39 39 39 39 39
59 59 56 56 56 54 53 53 52 53 54 54 52 52 50 49 48 46 46 45 44 43 41 40 40 39 39 39 39 39 39 39

GFSFLT2_sfc_temp_063.txt.gz
Temp
67 67 68 69 69 69 69 69 69 70 70 70 70 69 69 70 70 70 70 70 70 70 69 69 69 68 68 66 66 66 61 62
66 67 68 67 69 68 68 68 68 68 69 69 68 68 69 69 69 70 70 70 70 69 69 68 67 67 67 66 65 65 60 60
65 66 66 66 67 68 68 68 68 68 68 67 65 64 65 66 68 69 69 69 69 69 68 67 66 66 66 65 64 61 61 60
62 66 66 66 70 65 65 67 65 65 65 64 63 63 64 66 67 68 69 68 68 67 67 66 65 63 63 63 60 60 59 59
64 66 65 65 65 63 62 62 62 63 63 63 64 64 63 62 62 62 62 65 64 64 63 62 62 60 60 59 59 58 55 56
65 65 65 64 63 62 62 62 63 62 62 64 62 61 61 60 59 59 59 60 59 59 58 59 58 60 58 58 57 55 54 54
63 64 63 62 61 60 62 62 63 63 63 63 62 60 58 58 57 58 57 57 57 56 56 56 56 56 55 55 54 54 54 53
64 63 62 62 61 61 62 62 62 62 62 62 62 60 58 57 56 55 54 55 55 54 53 52 51 52 52 53 52 52 52 51
65 63 63 62 62 61 60 61 62 61 60 61 60 59 58 56 54 54 54 54 53 52 51 50 50 52 50 51 50 50 51 51
64 68 62 61 60 59 59 59 59 59 59 58 59 58 57 55 54 53 53 52 51 50 50 48 48 48 47 47 47 48 49 49
64 62 59 58 57 57 57 57 57 56 56 56 57 57 56 54 53 52 53 52 52 51 48 48 46 47 48 47 45 45 46 51
62 60 58 57 57 56 55 55 55 55 55 56 57 56 56 54 53 53 53 51 49 48 48 46 45 45 52 49 43 44 44 44
60 59 58 58 56 55 54 53 53 54 55 57 57 56 56 54 52 52 51 50 49 49 46 46 44 43 42 42 42 42 43 43
58 60 58 58 59 56 56 54 54 54 55 55 56 55 55 54 52 51 50 48 48 47 46 43 43 42 41 38 37 40 42 44
59 59 59 59 58 58 54 54 54 53 52 52 54 55 55 54 52 50 49 48 46 45 44 44 42 42 42 41 36 33 35 39
59 59 59 59 58 57 56 53 52 52 52 52 53 55 55 54 52 50 48 47 46 46 46 43 42 41 40 44 40 39 34 32
58 59 59 60 59 58 55 52 52 51 52 52 52 52 53 53 51 48 47 46 46 45 44 43 41 40 39 38 37 36 35 33
58 59 59 59 58 57 55 53 52 51 50 50 49 49 50 51 52 48 47 49 46 44 42 42 41 40 39 38 38 36 35 33
58 59 57 58 57 55 54 53 52 52 50 49 48 48 50 51 50 49 49 45 44 44 42 40 39 38 38 38 38 38 38 37
58 57 55 55 54 53 52 52 50 50 51 49 50 51 49 48 48 49 47 45 43 41 39 39 38 37 37 37 37 37 38 38

GFSFLT2_sfc_temp_066.txt.gz
Temp
67 69 70 70 69 69 69 70 69 70 70 70 70 69 69 70 70 70 70 70 70 70 68 68 69 68 67 66 65 65 61 62
66 66 67 67 68 68 68 68 68 68 69 68 68 68 68 69 68 70 70 70 70 69 68 67 67 66 65 65 64 64 60 61
65 66 66 66 66 68 68 68 68 68 68 67 65 64 64 65 68 69 69 69 69 68 67 66 65 65 65 64 63 60 60 59
63 64 65 66 69 65 65 66 64 65 64 64 63 62 63 65 66 68 68 67 67 66 66 65 63 60 60 61 58 57 57 57
63 64 65 64 64 63 62 62 62 63 63 63 63 63 62 62 61 61 61 63 61 61 61 60 58 58 57 56 55 55 53 54
62 63 64 63 63 62 61 62 62 61 61 63 62 61 60 58 58 58 58 57 57 57 56 56 56 56 55 54 54 52 52 52
61 63 63 62 61 61 61 61 62 62 62 63 61 60 57 57 56 56 56 56 56 54 54 54 53 53 53 52 52 51 51 51
64 63 62 62 60 60 60 61 62 62 61 61 61 58 57 55 54 54 53 54 53 52 51 50 50 50 50 50 50 50 50 50
63 61 61 60 61 61 60 61 61 61 60 61 59 58 57 55 54 53 52 55 54 53 50 49 49 50 49 49 49 49 49 49
62 66 62 61 59 59 59 60 59 59 58 59 60 57 56 55 56 55 55 54 54 52 50 47 47 47 47 46 46 48 49 49
62 62 59 58 57 57 57 57 57 57 58 59 58 56 55 57 54 52 53 52 52 53 49 47 46 46 49 45 44 45 47 51
60 58 57 56 56 55 55 55 55 55 55 55 55 55 55 53 54 51 52 50 48 48 47 45 45 45 50 47 43 44 44 45
58 57 56 57 56 54 53 53 53 53 57 57 57 56 54 53 51 50 50 49 48 48 46 45 44 43 43 43 42 43 43 43
58 58 57 57 59 54 55 53 53 54 56 56 55 55 54 53 51 50 49 47 47 46 45 43 43 42 41 39 38 41 42 43
59 58 57 58 57 56 54 54 53 52 51 52 53 54 53 52 51 49 47 47 46 45 44 44 42 42 42 41 36 35 36 40
59 58 58 57 57 56 56 54 53 53 51 51 52 53 52 52 50 48 47 46 47 45 48 43 42 41 41 43 40 39 36 34
57 57 58 58 58 57 57 56 52 51 50 51 50 50 51 50 49 48 50 46 47 45 43 42 41 40 39 39 38 36 36 34
56 57 58 58 57 57 57 54 51 49 49 48 48 48 48 49 52 50 46 49 48 44 42 42 40 39 39 38 38 37 36 34
57 58 57 58 57 58 57 53 51 51 49 47 47 47 47 48 50 49 49 48 46 42 41 40 39 38 38 38 38 38 38 37
58 58 58 57 57 57 54 52 51 50 49 48 48 48 49 49 48 48 47 47 43 43 40 39 38 38 38 37 38 38 38 37

GFSFLT2_sfc_temp_069.txt.gz
Temp
68 72 72 70 69 69 69 70 70 70 70 70 70 69 70 70 70 71 71 70 70 70 69 68 69 68 67 66 65 66 76 76
66 67 67 67 69 68 68 68 68 69 69 68 68 68 69 69 69 70 70 70 69 69 68 67 66 66 65 64 64 67 75 75
65 64 64 65 67 69 69 68 68 68 69 67 67 72 72 73 69 69 69 68 68 67 66 65 65 64 64 64 66 73 73 74
64 63 65 64 68 67 69 70 71 70 71 70 70 71 73 73 69 67 67 67 67 66 65 65 68 72 71 67 71 70 72 72
63 64 65 65 66 67 67 70 70 69 69 71 71 71 71 70 69 69 69 67 69 69 70 70 68 69 68 68 68 69 70 71
62 63 64 65 66 67 66 67 69 69 70 70 68 69 68 67 67 64 66 69 67 68 67 65 65 65 65 64 65 67 69 69
61 62 64 65 66 65 66 67 69 70 70 71 69 67 63 63 63 67 66 68 67 67 67 66 65 64 64 64 64 64 65 67
63 62 67 65 65 66 67 69 70 71 69 70 68 65 63 64 64 65 66 67 67 67 66 65 64 65 63 63 63 64 64 64
65 67 67 66 66 67 68 69 68 67 68 67 65 64 64 65 65 66 66 65 63 63 63 64 64 64 62 62 63 62 64 64
69 70 68 67 68 69 69 69 66 66 66 66 66 66 66 65 65 65 65 65 63 64 64 62 62 64 62 62 63 63 62 63
67 68 66 66 66 66 66 66 65 65 65 66 63 65 64 66 64 64 65 64 64 63 61 63 62 63 63 62 62 63 62 64
68 66 65 65 64 64 64 64 64 64 64 65 66 64 64 63 65 63 65 62 61 62 61 61 62 62 62 61 60 60 62 62
67 65 64 64 63 62 62 62 62 62 64 65 62 63 61 64 64 62 62 62 62 61 61 60 60 60 60 60 58 57 57 60
66 66 64 65 68 67 66 64 63 64 65 63 62 60 63 64 62 62 62 61 60 60 60 59 59 58 58 56 54 56 57 58
66 67 66 66 66 64 62 61 61 61 62 60 62 62 64 62 62 62 61 62 61 59 58 58 57 57 55 56 52 51 52 58
68 66 65 65 64 63 62 62 58 61 60 59 62 63 62 62 61 61 61 60 59 59 58 57 57 56 56 56 54 53 50 49
65 65 65 64 64 64 62 60 60 60 58 60 60 61 62 61 61 60 59 58 56 56 56 55 58 57 55 55 53 53 51 48
63 64 64 63 63 63 62 60 58 59 60 59 60 61 61 60 60 58 56 56 53 53 54 53 55 55 55 53 52 50 50 48
63 64 62 63 62 62 62 60 59 60 60 60 59 59 59 58 58 55 57 49 48 50 53 53 53 53 52 53 52 52 52 50
63 62 63 63 62 62 62 60 57 61 62 62 61 60 59 57 56 52 48 47 49 50 51 54 53 51 51 50 52 52 52 51

GFSFLT2_sfc_temp_072.txt.gz
Temp
74 74 72 68 68 69 70 70 70 71 71 70 70 70 70 70 70 71 71 71 70 70 70 69 68 68 67 66 66 69 83 83
67 66 66 68 68 68 68 68 69 69 69 69 68 69 69 69 69 70 70 70 69 68 68 67 67 66 65 66 67 70 82 82
64 63 63 66 69 69 69 68 68 68 69 68 70 76 78 77 70 69 69 68 68 67 66 66 65 64 65 67 70 81 81 82
62 62 61 61 65 68 71 71 76 77 76 77 79 78 81 79 71 67 67 67 66 66 67 68 72 81 78 73 79 78 80 80
62 62 62 62 62 63 66 71 73 75 76 79 77 78 77 79 75 76 75 72 76 75 76 79 76 78 76 75 76 77 78 79
63 62 64 64 65 68 69 71 73 73 74 76 76 78 77 77 78 77 74 77 74 75 75 73 73 73 73 72 73 76 77 79
60 63 64 65 66 68 70 71 72 74 73 76 79 78 76 76 74 73 76 75 77 75 74 74 72 72 73 72 72 72 72 76
61 60 63 64 68 70 71 72 73 74 75 77 76 77 73 70 70 74 75 77 77 76 75 74 74 73 71 70 70 72 71 71
62 63 67 69 71 73 73 74 76 77 75 73 71 69 70 71 74 75 76 74 71 73 72 73 74 74 70 71 73 71 71 70
70 72 72 71 72 73 74 76 76 75 75 75 73 73 73 73 74 74 73 73 73 73 73 72 72 73 72 73 73 73 70 70
72 73 72 72 73 75 76 75 75 73 71 75 73 73 73 74 74 72 72 73 72 72 71 73 71 73 73 72 71 72 71 73
74 73 71 73 72 72 74 74 71 70 72 73 71 73 72 73 73 72 74 72 71 70 69 71 72 71 71 70 68 69 69 69
74 73 73 73 72 73 73 69 67 68 70 71 70 66 71 73 74 71 72 71 70 68 69 67 69 70 66 68 68 65 64 66
74 74 73 74 76 76 75 73 68 69 74 68 70 69 70 71 71 71 71 70 68 67 67 68 69 68 63 63 61 65 64 65
75 76 77 76 77 77 75 74 71 70 70 65 66 66 69 72 71 71 69 70 68 67 66 65 66 66 63 62 59 58 61 67
78 78 77 76 76 75 71 72 70 71 68 67 66 66 70 71 71 70 69 70 68 67 67 66 63 63 66 64 61 60 56 55
77 77 76 75 74 73 72 72 71 67 59 59 65 67 70 71 70 69 68 69 67 64 63 62 65 62 63 62 61 60 59 54
73 74 73 74 72 71 71 70 66 63 58 58 65 69 69 68 70 68 68 65 64 62 57 55 59 62 62 61 59 57 56 55
72 73 73 74 71 70 67 68 66 65 62 62 68 67 66 67 68 66 65 64 53 49 51 61 61 60 59 60 60 58 58 56
73 73 73 73 71 68 68 69 68 67 64 67 68 68 68 68 66 66 64 49 48 50 57 61 61 59 58 58 59 59 59 57

GFSFLT2_sfc_temp_075.txt.gz
Temp
73 73 72 70 69 69 70 70 70 71 71 70 70 70 70 70 71 71 71 71 70 70 69 68 68 68 67 67 69 70 84 84
69 69 71 69 69 67 67 68 69 69 69 68 68 69 69 69 70 70 70 70 70 69 68 67 67 66 67 68 69 71 83 84
66 64 65 66 67 68 68 68 68 68 68 68 70 74 74 75 68 69 69 68 68 68 67 66 66 66 67 68 68 82 83 82
63 63 63 64 65 68 70 73 75 75 74 76 79 77 78 77 69 67 67 67 67 67 67 66 70 79 78 72 80 79 81 81
62 63 62 62 64 65 67 75 76 75 74 76 78 78 76 75 73 75 74 72 75 75 73 79 78 79 77 76 78 79 79 80
61 63 62 61 66 64 67 68 73 72 74 75 74 74 75 75 77 77 76 79 77 77 76 74 75 75 75 74 74 76 77 78
60 61 62 61 63 64 67 67 72 73 74 75 75 75 73 75 77 78 79 77 76 76 75 76 74 74 75 74 74 73 74 77
59 59 61 62 63 65 65 69 72 74 72 75 76 73 70 72 74 76 75 77 79 77 76 76 76 74 72 72 72 74 73 73
58 57 59 59 60 63 68 72 75 74 73 75 76 73 73 73 74 74 77 78 75 75 75 75 75 75 72 73 74 72 73 72
60 61 60 60 65 71 72 76 74 74 75 73 74 73 73 74 75 76 76 74 75 75 74 73 73 74 73 74 73 73 72 71
60 62 62 66 73 74 75 75 73 71 72 71 74 74 75 77 77 76 74 75 74 74 73 73 71 73 73 72 72 72 71 74
69 67 67 70 71 73 74 74 72 72 71 73 73 76 75 77 77 74 75 74 73 73 71 72 73 72 73 72 70 70 71 70
74 73 70 71 71 73 74 74 70 69 71 74 74 75 75 75 76 73 75 73 72 70 70 68 69 71 67 69 70 68 66 68
75 76 74 74 78 77 77 77 72 73 75 72 73 69 69 75 75 73 73 72 69 69 69 68 70 69 64 64 62 66 66 67
76 75 75 75 79 80 79 76 74 69 70 71 72 72 74 75 74 73 72 72 69 68 68 68 67 68 65 62 59 59 61 67
77 78 75 75 75 78 76 71 70 72 71 71 66 65 69 72 74 73 71 71 70 68 69 68 66 64 63 66 64 61 55 54
77 79 80 79 77 75 77 75 75 73 69 69 64 63 67 72 73 71 70 70 69 68 65 63 65 58 55 62 63 62 61 56
79 79 80 80 74 74 75 74 75 71 67 64 64 62 66 71 72 70 70 69 67 65 62 61 55 59 63 62 60 58 57 57
79 79 79 79 75 72 74 74 73 68 66 65 64 64 66 69 70 68 68 67 65 60 56 53 56 59 61 61 62 61 60 58
78 78 77 79 76 73 73 74 72 70 69 68 65 65 69 70 68 68 67 65 60 57 55 53 56 58 59 59 60 61 61 59

GFSFLT2_sfc_temp_081.txt.gz
Temp
63 71 72 70 70 70 70 70 70 70 70 70 70 70 70 71 71 71 71 70 70 70 69 69 69 69 69 67 67 69 66 66
62 65 69 68 68 69 68 68 68 69 69 68 68 68 69 69 70 70 70 70 70 69 68 68 69 69 68 67 67 67 62 62
62 63 66 67 68 68 68 68 68 68 68 67 67 68 67 68 69 69 69 69 69 68 68 67 67 69 68 67 67 64 62 59
63 64 65 66 67 67 68 69 67 68 68 67 68 66 67 67 67 68 68 68 68 68 67 67 67 65 64 65 62 62 60 58
63 63 65 65 65 65 64 66 68 67 66 68 67 66 64 64 64 64 64 66 65 65 64 65 65 63 62 61 61 60 57 57
61 61 61 60 61 61 63 64 64 65 68 66 66 65 63 64 64 63 63 63 62 62 61 62 63 64 63 62 61 57 55 56
59 59 59 60 61 63 65 66 68 65 66 66 67 65 64 63 63 63 63 63 62 61 62 63 62 62 61 61 61 60 58 56
59 59 58 60 60 61 61 64 63 64 64 65 65 64 62 62 64 64 63 64 64 63 62 61 60 61 60 61 60 59 57 56
59 58 60 59 58 60 62 63 64 63 64 66 65 64 64 64 62 62 63 63 63 63 61 59 58 61 60 60 60 59 59 57
58 60 58 58 58 58 60 60 61 62 64 63 63 65 66 62 61 61 62 61 61 60 59 57 57 56 56 55 56 58 59 59
57 58 58 57 57 57 59 60 61 62 62 62 65 65 65 63 61 61 61 61 60 61 58 57 56 55 57 55 56 55 58 62
59 60 59 57 57 59 62 61 62 62 61 63 65 65 66 63 62 61 61 61 59 58 58 56 56 55 63 59 54 55 55 54
58 56 56 56 55 57 60 61 60 61 62 65 65 65 66 62 62 60 61 59 58 58 55 55 54 54 53 52 53 53 54 53
58 57 56 58 57 60 61 63 62 63 63 63 64 64 63 62 62 61 61 59 57 56 56 54 53 53 51 49 47 50 51 54
59 59 58 60 61 62 63 61 60 61 61 62 63 63 62 63 63 62 60 57 56 55 55 55 52 52 54 51 46 44 46 49
62 63 61 61 63 63 63 63 61 61 60 61 61 61 61 62 63 63 61 59 58 56 58 54 53 51 51 55 52 49 44 42
63 64 64 64 65 63 64 60 63 60 60 60 59 59 60 61 61 60 61 58 57 57 55 54 53 50 49 50 52 48 46 44
65 66 66 66 66 66 63 64 62 62 60 59 58 57 57 59 60 60 60 59 58 58 54 52 51 51 51 50 51 47 48 43
66 66 66 67 66 66 65 63 64 62 61 60 57 57 56 58 59 58 60 59 56 56 54 52 51 50 50 51 52 51 48 46
66 67 67 68 67 66 66 63 65 63 63 61 60 59 58 57 58 57 58 57 56 54 52 51 51 49 51 51 51 51 51 49

GFSFLT2_sfc_temp_084.txt.gz
Temp
63 64 67 68 69 70 70 70 70 71 71 71 71 71 71 71 71 71 71 70 70 70 69 69 70 69 68 67 67 67 62 64
62 62 63 68 68 68 68 69 69 69 69 68 68 68 69 70 70 70 70 70 70 70 69 69 69 68 67 66 65 64 58 59
61 64 65 66 68 68 68 68 68 67 67 67 67 70 70 68 68 69 70 69 69 69 69 67 67 67 66 65 64 59 59 58
63 65 66 66 67 67 67 68 67 66 66 66 66 67 68 68 68 68 68 68 68 68 67 67 65 63 62 64 60 58 57 57
64 64 65 65 64 65 65 67 66 65 66 66 66 65 64 66 66 66 65 66 66 65 63 62 63 62 61 59 58 56 54 56
62 63 64 64 63 61 63 65 65 65 66 65 64 63 62 62 63 61 61 61 61 60 60 60 60 61 60 58 57 54 54 55
59 61 61 62 62 62 65 65 66 67 66 65 65 64 62 62 61 60 60 61 60 60 60 61 60 59 59 59 57 56 55 55
59 59 59 60 59 61 61 63 63 63 64 64 64 62 60 60 61 60 61 61 60 60 60 59 59 59 58 59 57 56 56 55
57 58 60 60 60 61 65 63 63 63 63 64 64 63 62 61 61 60 61 60 60 60 59 58 57 59 58 58 57 56 56 54
58 60 58 59 59 61 61 61 61 62 62 63 64 63 62 60 59 60 60 60 59 58 57 56 55 55 54 55 55 56 55 54
57 58 57 57 58 59 59 60 60 61 62 62 63 64 63 61 59 59 59 58 58 58 55 55 52 52 54 52 52 53 55 58
57 58 58 58 58 58 58 58 61 61 61 62 63 62 62 60 59 59 58 58 57 56 56 54 53 53 60 56 51 52 52 52
58 58 57 57 58 58 58 59 60 59 60 62 61 61 62 61 60 58 59 59 57 57 54 54 51 52 52 50 50 50 51 50
59 58 56 57 59 62 62 63 57 58 60 60 62 63 63 62 61 60 61 59 56 55 54 52 52 51 50 47 47 50 50 52
56 57 56 57 58 57 57 57 57 57 58 58 60 63 62 63 61 60 60 60 57 55 54 54 51 50 51 50 43 43 43 47
57 57 57 58 58 58 57 59 58 58 58 60 59 61 61 62 62 61 60 57 55 56 57 53 52 50 49 52 49 47 43 43
56 58 58 59 58 58 58 57 58 58 58 58 59 59 60 61 60 59 57 57 56 56 54 53 52 50 49 49 48 46 45 43
57 58 59 59 59 60 59 59 59 59 60 59 59 59 59 59 61 59 59 57 56 59 57 52 51 50 50 50 48 46 45 43
58 59 59 61 61 61 61 61 60 60 60 60 59 58 57 58 59 57 57 57 56 58 56 53 52 51 50 49 49 49 49 47
60 60 61 62 62 62 63 63 62 63 62 61 60 60 60 61 59 57 56 56 56 54 51 50 49 48 47 47 47 49 50 50

GFSFLT2_sfc_temp_090.txt.gz
Temp
64 65 69 70 70 70 70 70 71 71 72 72 72 71 71 72 72 71 71 71 70 70 69 69 68 68 67 66 65 65 61 62
61 63 64 66 66 68 69 69 69 70 70 70 69 69 70 70 70 70 71 70 70 70 69 68 68 67 66 65 64 64 59 60
61 61 62 64 66 68 68 69 70 70 67 68 67 68 67 67 69 70 70 69 69 69 68 67 66 65 65 64 62 59 60 60
61 62 62 62 66 67 67 68 67 68 69 68 70 67 65 66 68 69 69 68 68 67 66 66 64 61 62 62 58 58 59 59
63 63 63 62 63 65 65 65 63 64 66 68 71 67 64 64 64 65 65 66 65 64 62 61 59 57 56 56 56 56 56 59
62 62 62 63 63 65 64 62 62 63 65 67 68 67 62 62 63 60 63 61 59 59 57 57 56 56 57 54 54 54 54 56
61 62 62 62 63 63 63 62 62 64 64 67 68 66 63 62 59 59 60 57 59 57 58 57 55 56 55 55 54 55 55 56
60 61 61 61 62 62 62 62 64 64 64 64 66 64 62 61 61 61 60 59 58 59 58 56 54 55 54 55 55 54 55 56
59 59 60 61 60 61 61 61 64 64 63 62 61 61 61 61 61 61 60 58 57 58 55 54 53 55 53 54 54 54 55 55
59 61 59 59 59 59 60 61 62 62 62 61 61 61 61 58 58 60 59 58 58 56 55 53 52 53 52 52 53 54 55 54
57 58 58 59 59 59 60 61 61 61 60 61 61 62 60 60 58 59 59 58 57 57 53 53 52 52 52 51 51 51 52 55
57 58 58 58 59 59 58 59 60 61 61 61 62 61 61 59 57 58 58 56 54 54 53 52 52 52 57 53 50 50 50 51
56 57 57 59 58 58 57 58 57 57 62 62 62 62 62 60 58 57 56 57 56 54 52 53 51 51 50 49 49 49 49 49
57 57 57 60 59 59 57 58 58 58 59 61 61 61 62 61 60 57 57 55 54 53 53 51 51 50 49 47 47 49 48 49
57 57 57 58 59 58 58 58 57 58 58 58 60 61 60 61 59 58 56 56 55 53 52 53 50 48 49 50 43 44 45 47
58 58 57 59 59 58 58 59 58 62 58 59 59 60 59 59 59 58 57 56 54 54 53 53 52 50 48 50 48 48 46 45
58 57 58 59 58 58 57 57 59 56 57 58 57 58 59 59 59 58 56 58 57 55 54 52 52 52 51 49 49 47 45 45
54 56 55 55 55 54 55 55 53 54 54 54 54 55 56 57 59 59 59 57 56 55 54 53 53 52 55 52 50 49 46 47
55 55 54 55 54 54 54 54 54 56 56 57 54 55 55 56 56 56 56 56 56 55 54 54 53 52 53 52 50 50 48 46
54 54 53 54 54 54 55 55 55 56 56 57 57 58 58 57 56 57 57 57 56 55 55 54 53 52 51 49 49 48 48 48

GFSFLT2_sfc_temp_093.txt.gz
Temp
65 66 68 69 68 70 71 71 71 72 72 72 72 72 72 72 72 72 72 71 71 70 69 69 68 68 67 66 65 68 75 75
66 66 66 69 68 70 69 70 70 71 71 70 70 70 71 71 70 71 70 70 70 70 69 68 67 67 66 65 65 67 74 75
65 65 69 71 69 71 67 69 70 69 70 69 69 75 75 74 72 69 70 69 69 69 68 67 66 66 65 65 66 74 74 74
64 67 66 65 66 68 67 72 74 73 73 72 74 73 75 75 71 69 69 69 69 68 67 66 69 73 71 66 73 73 73 74
65 66 66 65 64 65 65 64 68 68 73 70 70 71 72 75 74 73 72 70 73 72 70 73 71 72 71 71 71 72 73 74
64 65 64 66 64 65 64 64 64 68 71 70 66 68 71 72 73 72 71 73 72 71 70 69 68 69 69 68 69 71 72 73
64 64 64 64 63 63 64 64 64 66 67 69 67 69 69 72 70 72 71 70 69 70 70 69 68 67 68 68 68 69 70 72
62 62 63 62 62 63 64 64 66 64 65 66 68 70 68 70 69 70 69 71 71 70 69 69 68 68 67 68 68 69 69 70
60 62 62 60 61 63 63 63 63 65 65 66 67 68 68 69 68 68 70 68 66 68 67 67 67 68 66 66 67 67 68 68
60 62 60 60 60 62 62 62 63 64 64 64 65 67 68 67 68 69 69 67 68 66 66 66 66 67 65 66 67 66 67 67
58 61 59 58 59 61 62 62 62 63 63 62 63 66 67 66 67 67 67 67 65 66 65 66 64 67 66 65 64 65 65 65
58 58 60 59 60 59 61 61 61 62 62 62 64 65 66 65 65 66 67 67 65 66 64 65 66 65 66 63 63 62 61 62
58 57 58 58 58 58 59 59 59 60 61 62 64 65 65 64 66 65 66 66 66 64 64 62 62 63 61 60 60 60 60 62
58 58 57 59 61 59 59 60 60 60 62 63 63 64 64 63 65 64 66 65 64 63 63 59 61 61 62 62 58 60 61 62
58 58 58 59 60 59 57 57 57 61 62 62 66 66 62 63 65 64 63 65 64 62 61 62 60 60 62 63 56 57 60 60
59 59 58 58 60 61 59 58 58 61 63 63 62 64 62 62 63 64 64 64 63 63 62 61 63 61 60 60 59 61 59 58
59 59 59 60 61 60 61 59 61 58 60 63 60 60 60 60 62 62 64 65 64 62 61 61 61 62 60 59 57 59 58 60
59 58 58 58 58 61 62 60 60 61 60 59 60 61 61 62 62 62 65 66 64 62 61 60 60 59 61 57 55 57 54 50
59 59 58 58 58 59 60 61 62 63 64 64 61 62 64 64 65 65 66 65 65 65 63 61 60 60 61 57 55 58 57 52
59 59 60 60 59 60 61 62 63 64 65 66 65 66 66 66 65 66 66 66 65 64 63 62 61 57 55 54 56 57 58 59

GFSFLT2_sfc_temp_096.txt.gz
Temp
69 66 65 66 70 71 70 72 72 72 72 72 72 72 72 72 73 73 72 72 71 70 69 68 68 67 67 67 67 70 83 83
68 66 64 63 69 67 67 70 70 70 71 71 70 71 71 71 71 71 71 71 70 69 68 68 67 67 66 65 67 69 83 82
68 66 65 64 71 71 69 67 69 70 70 69 69 77 76 76 74 70 70 70 69 69 68 67 66 66 65 66 67 82 81 82
68 67 68 69 71 74 72 67 71 74 72 75 80 77 78 80 72 68 69 69 68 68 67 66 69 77 75 68 82 80 81 81
66 70 67 70 71 74 68 67 69 70 71 74 76 79 78 78 76 76 75 71 76 74 72 78 79 79 77 80 79 79 81 80
69 68 71 70 70 68 67 67 69 68 70 72 75 76 76 76 79 79 78 79 77 77 78 79 78 78 78 77 77 80 81 80
69 70 70 67 70 68 66 68 65 68 68 71 74 75 71 76 79 80 80 81 79 78 79 77 76 76 77 77 77 78 78 79
69 70 69 69 67 68 65 65 66 67 68 68 70 71 70 73 77 79 80 81 81 79 78 77 77 76 75 76 76 77 77 78
66 65 69 66 66 65 65 64 65 66 66 67 67 68 69 71 75 77 79 80 77 78 77 77 77 77 75 75 76 76 77 76
63 64 66 65 62 62 63 64 65 65 66 66 66 68 70 73 76 76 78 77 77 76 76 75 75 76 75 76 76 75 75 75
61 65 63 60 60 62 63 63 64 65 65 65 65 67 69 75 75 75 75 75 74 74 74 74 73 74 75 75 75 75 73 75
61 64 62 61 61 61 61 62 63 63 63 64 64 65 69 72 73 73 74 74 73 74 73 74 74 74 76 73 72 73 72 72
59 60 61 61 60 59 59 59 61 61 62 62 63 66 69 71 73 72 74 73 73 72 72 70 71 71 70 70 68 68 67 70
60 59 61 61 61 59 60 61 60 61 61 62 63 65 70 70 72 71 73 73 71 70 70 69 68 67 64 67 62 65 68 68
63 63 59 61 61 59 58 59 60 60 60 61 62 64 69 70 73 72 73 73 70 69 68 68 66 64 67 67 63 62 68 70
66 65 61 62 62 62 59 59 58 62 62 64 63 63 64 68 72 72 71 72 70 69 69 69 69 65 65 67 68 68 64 61
64 66 60 61 63 62 60 60 61 60 62 68 65 64 65 64 65 65 68 70 69 69 68 68 70 69 67 66 65 66 67 61
63 64 62 61 65 66 63 64 60 59 60 62 67 65 69 67 66 65 67 70 70 70 70 68 67 67 70 66 66 64 65 63
64 64 61 64 66 65 63 65 65 62 63 63 69 67 64 64 66 64 67 70 72 71 70 69 69 66 65 66 61 63 63 63
64 64 63 62 61 62 66 69 65 67 69 70 68 69 70 71 70 70 67 67 70 70 70 70 70 68 67 67 65 66 60 56

GFSFLT2_sfc_temp_099.txt.gz
Temp
77 74 73 69 68 65 67 71 72 72 72 73 73 72 72 73 72 73 72 71 70 69 69 68 68 68 67 67 68 70 84 82
75 73 71 70 67 64 64 69 70 71 71 71 70 71 71 71 71 71 71 70 69 69 68 67 67 67 67 67 68 69 83 82
75 72 70 66 67 66 66 68 71 70 70 69 69 76 75 75 74 70 70 69 69 68 67 67 66 66 66 67 66 84 83 81
74 71 68 65 68 64 66 66 67 73 76 74 79 76 77 81 72 69 69 69 68 67 67 66 69 75 74 68 78 82 83 80
72 72 70 68 71 69 71 67 64 68 74 76 76 78 75 76 74 73 73 71 74 72 70 75 78 78 78 80 80 81 82 79
73 74 72 72 70 71 72 73 64 67 73 75 77 76 73 75 76 77 75 77 75 75 76 78 78 79 79 78 79 82 81 78
71 73 73 72 71 70 72 73 70 67 69 77 75 74 70 71 77 78 78 79 77 76 78 79 79 78 79 78 78 80 79 78
73 71 72 73 73 72 70 67 67 67 67 72 75 75 72 72 75 79 80 81 80 79 80 79 78 78 77 78 78 79 79 78
72 73 72 72 71 71 71 69 69 68 66 68 73 70 74 73 74 79 80 81 80 80 79 79 78 78 76 77 78 78 79 78
70 69 70 70 70 71 68 66 69 66 66 66 66 67 73 72 70 71 78 77 80 80 78 77 76 77 76 77 77 78 77 77
63 64 68 68 66 66 69 66 66 66 65 65 66 65 66 67 67 70 76 78 78 78 77 76 75 76 76 76 76 76 76 78
65 62 66 64 63 64 63 63 64 65 65 64 65 65 65 67 68 69 78 77 76 76 73 76 76 76 78 75 75 76 76 75
62 64 63 63 61 62 61 60 62 63 65 64 64 64 66 67 71 72 74 75 71 69 74 73 74 75 74 72 72 73 72 74
60 62 63 63 63 61 60 60 62 63 63 63 63 63 64 64 67 70 71 71 69 71 72 71 73 73 69 69 63 66 69 69
65 63 64 62 61 61 60 60 60 60 60 61 61 62 63 65 67 69 70 71 70 70 71 71 68 69 68 69 63 62 67 69
70 66 65 62 62 61 60 58 57 59 59 60 61 62 64 66 68 69 69 73 69 69 71 70 71 66 67 70 70 68 64 61
66 66 65 64 62 64 60 59 59 59 60 59 60 61 64 67 70 71 71 71 72 71 69 68 69 69 67 67 65 66 65 62
66 64 64 63 62 63 62 60 60 59 59 59 59 60 61 63 67 69 70 71 69 68 68 68 69 70 70 69 67 64 63 60
67 65 62 63 63 62 62 61 61 60 62 62 62 62 61 61 62 63 66 69 70 69 66 67 68 67 67 67 68 68 68 62
67 66 64 64 64 65 66 66 66 62 65 65 63 65 68 64 64 65 66 67 66 68 69 68 68 66 67 68 69 69 67 65

GFSFLT2_sfc_temp_102.txt.gz
Temp
76 74 73 69 67 68 67 66 64 72 72 71 69 70 71 72 72 72 71 71 70 69 69 68 69 68 68 68 68 69 75 72
74 73 72 70 70 66 66 67 65 64 71 71 71 70 71 71 71 71 70 69 69 69 68 68 68 67 67 67 67 69 74 71
72 71 71 69 68 66 66 67 66 60 70 70 68 71 72 71 71 69 69 69 68 68 67 66 66 67 67 67 67 73 74 69
73 71 70 68 66 64 64 64 63 61 71 69 71 71 72 74 69 68 68 68 68 67 66 66 68 65 65 66 67 74 73 68
72 71 69 66 65 64 64 63 62 64 69 68 70 72 71 69 68 68 67 67 67 66 65 67 67 66 67 67 69 73 70 68
72 71 68 66 67 64 64 63 62 63 69 70 71 71 69 68 68 68 67 67 66 65 66 67 67 68 69 70 70 72 69 66
70 71 68 68 67 66 65 64 62 63 65 69 72 71 68 68 68 69 69 69 68 67 67 69 69 68 69 70 70 72 69 67
70 70 70 69 67 67 66 65 64 64 66 68 70 71 68 69 69 70 70 70 70 69 69 71 68 68 68 69 70 69 69 67
69 70 71 69 68 67 67 67 66 66 65 66 68 70 68 69 70 68 71 71 69 70 70 68 67 69 67 67 68 69 71 68
70 69 69 69 68 67 66 67 67 66 66 66 66 67 69 69 70 70 73 71 71 71 70 66 65 65 64 65 66 67 68 67
66 67 66 67 67 66 66 67 66 66 66 66 66 66 64 68 70 66 70 72 71 69 66 65 63 64 65 64 64 65 66 70
65 65 66 66 63 64 64 65 65 66 66 65 64 64 64 64 66 67 66 67 68 69 67 66 64 64 72 67 62 63 64 63
64 64 64 63 61 61 61 61 62 64 65 65 64 64 64 63 66 65 66 67 64 67 65 64 63 65 61 60 60 62 62 62
64 64 63 64 63 62 61 61 62 63 64 64 65 63 64 63 65 64 66 65 65 65 64 62 63 64 60 57 53 57 59 61
64 65 63 63 64 62 60 61 61 61 62 62 64 64 64 63 64 64 64 65 63 63 63 63 61 61 62 59 54 52 54 57
67 64 62 63 64 63 60 58 58 59 62 62 61 63 62 62 62 63 63 64 63 63 65 63 62 58 59 62 60 58 53 50
66 65 62 63 62 63 60 58 58 59 59 59 60 60 61 61 61 63 64 64 63 62 62 62 62 61 60 58 58 57 57 53
64 64 63 63 62 63 61 59 58 58 58 58 58 58 59 60 62 61 62 62 62 62 63 62 61 61 61 60 57 55 54 53
63 63 61 62 61 62 61 60 60 59 59 58 58 58 58 59 61 60 60 62 63 62 62 61 61 60 61 60 59 59 59 57
63 62 61 61 61 61 61 61 61 60 60 60 60 60 60 62 61 62 63 64 63 63 63 62 61 60 60 60 60 59 59 58

GFSFLT2_sfc_temp_105.txt.gz
Temp
68 67 69 70 69 69 70 72 72 73 69 71 72 71 70 72 72 72 72 71 70 70 70 69 69 69 68 68 67 69 67 67
67 66 66 65 64 67 67 69 68 71 69 69 69 70 70 70 71 71 70 70 70 69 69 68 68 68 68 66 69 68 67 65
66 65 65 64 64 65 66 67 66 67 65 64 67 69 70 71 70 69 70 69 69 69 68 67 67 67 67 67 67 68 66 65
65 65 64 64 64 63 63 64 65 65 65 62 66 68 69 71 69 68 69 68 68 68 67 67 66 63 63 66 68 66 65 64
65 65 64 65 62 61 62 62 63 62 63 63 65 68 68 67 66 67 65 67 66 66 65 63 64 63 64 64 66 66 64 65
65 64 62 61 62 61 62 61 61 61 61 65 66 66 66 67 66 64 64 64 62 61 62 63 63 65 65 65 68 65 64 64
64 63 63 62 62 62 63 62 62 63 62 66 67 66 66 66 64 64 63 63 62 61 61 65 63 64 65 65 66 64 63 64
64 65 64 64 63 63 63 62 61 63 62 66 67 68 67 67 65 64 64 64 63 64 63 62 62 63 64 65 66 64 64 63
64 67 66 64 64 64 63 62 62 63 65 66 67 68 67 67 65 65 66 66 64 61 62 62 62 64 64 64 66 64 63 63
64 67 66 64 65 64 64 63 63 64 64 65 66 67 67 66 67 67 67 67 66 63 62 63 61 61 61 61 63 64 63 63
62 64 64 63 63 64 63 64 64 64 65 65 65 65 65 66 66 66 67 67 66 64 62 64 61 59 61 60 60 60 63 64
61 61 61 61 60 62 62 64 64 64 64 65 64 65 66 64 65 65 65 66 65 62 65 63 62 61 68 62 58 59 60 61
60 62 62 59 58 57 57 60 63 64 64 63 64 64 65 64 66 65 65 66 64 64 65 63 59 59 57 56 56 58 59 59
62 62 61 59 58 59 59 58 59 64 64 64 64 64 64 63 66 65 66 64 62 63 64 60 59 58 58 55 51 55 56 57
62 62 60 58 61 60 58 58 59 60 62 62 63 64 63 63 64 64 65 63 63 61 63 60 58 57 63 57 51 51 51 54
64 63 61 61 61 60 59 59 57 60 61 62 62 63 63 62 64 64 64 64 62 61 63 61 60 58 58 61 58 57 50 48
64 62 61 62 61 60 58 58 58 60 62 61 61 62 63 62 63 63 62 63 63 63 60 60 60 58 57 57 55 53 52 50
63 61 61 61 60 60 59 58 58 58 60 59 60 61 60 61 61 61 60 61 61 60 60 60 58 58 60 58 55 53 52 50
62 61 60 60 60 59 58 58 60 58 58 59 58 58 58 59 60 60 59 59 60 60 59 59 59 58 58 57 57 56 55 53
61 60 60 60 60 59 58 58 58 60 58 59 59 59 59 59 59 60 59 59 59 59 59 59 59 59 58 58 58 59 58 56

GFSFLT2_sfc_temp_108.txt.gz
Temp
67 68 70 70 70 70 70 71 72 71 70 70 71 70 70 72 72 72 72 71 71 70 70 69 69 69 68 68 67 67 65 65
65 65 65 65 66 68 68 69 68 70 68 68 67 67 69 70 71 71 71 70 70 70 69 68 68 67 67 67 66 66 65 63
65 63 63 63 63 64 67 66 66 68 68 67 66 67 67 70 70 70 70 69 69 69 69 68 67 66 67 66 66 66 65 64
63 63 62 62 64 62 62 63 65 67 67 66 67 67 68 68 68 69 69 68 68 68 68 67 66 64 67 66 64 64 64 63
63 63 63 61 61 61 61 62 62 64 64 66 67 66 66 67 66 67 66 67 64 65 66 65 63 63 63 65 63 63 63 64
63 63 62 61 61 60 60 61 62 63 63 64 64 65 65 65 66 66 64 64 61 63 60 60 61 63 63 63 63 61 61 62
63 62 61 60 60 60 60 61 61 62 63 62 65 65 65 65 65 64 62 60 59 58 60 60 61 62 63 64 62 61 61 62
62 62 61 61 61 60 61 63 62 61 62 63 65 65 65 65 64 61 60 61 60 59 58 58 60 62 61 62 61 61 61 60
62 62 62 61 62 61 62 62 61 62 62 63 65 65 64 64 62 61 61 60 57 57 58 59 61 62 61 61 61 60 60 60
62 65 62 62 62 63 63 61 62 63 63 65 66 66 65 64 62 62 62 61 61 60 58 59 60 60 58 59 60 60 60 60
61 61 61 61 63 63 63 61 62 64 63 65 66 66 66 64 63 63 62 62 62 61 59 61 60 57 60 56 58 58 59 62
60 60 61 61 60 62 63 61 62 63 64 64 65 65 66 64 62 63 62 63 61 61 62 60 61 58 65 60 58 59 60 59
59 58 59 59 57 59 61 61 62 62 64 65 65 65 65 64 64 64 63 65 61 62 62 61 56 58 56 55 55 57 57 59
58 59 59 58 58 57 60 60 63 63 63 65 65 64 65 65 65 65 64 63 63 62 62 58 58 58 56 54 51 54 55 55
59 59 61 60 58 58 57 58 60 61 61 62 63 64 65 65 66 66 66 64 62 63 63 63 61 56 60 55 49 49 51 55
59 60 61 60 59 58 58 55 58 59 62 63 63 63 64 65 65 66 66 65 64 63 64 61 62 60 55 58 56 56 51 50
59 59 60 61 60 60 59 58 58 58 60 61 63 62 63 63 63 63 64 63 63 63 60 60 58 58 57 54 55 54 52 51
58 59 60 60 60 60 59 58 59 58 60 60 60 61 61 61 62 62 63 62 61 59 58 59 57 58 58 58 56 55 53 51
58 59 58 60 60 59 59 59 59 59 60 60 61 60 60 58 60 59 60 61 60 60 59 58 58 57 57 56 57 56 56 53
58 58 58 60 59 59 59 57 59 59 60 60 60 60 60 59 60 60 60 60 60 59 58 57 57 57 57 56 57 55 57 56

GFSFLT2_sfc_temp_111.txt.gz
Temp
68 69 70 70 70 70 70 70 71 71 71 71 70 70 70 71 72 72 72 72 71 70 69 69 69 69 68 67 66 67 67 66
66 66 68 68 71 69 69 69 69 69 68 68 68 69 69 69 71 70 71 71 70 70 69 69 68 68 67 66 66 66 62 63
64 64 64 64 66 67 68 69 66 68 68 68 66 68 68 69 70 70 70 70 69 69 68 67 66 67 66 66 66 64 64 63
63 62 62 62 63 63 63 66 67 67 68 67 66 65 66 69 69 69 69 69 68 68 67 66 66 66 65 65 64 64 63 64
62 62 61 61 61 60 60 60 64 66 66 65 65 64 65 67 66 67 66 67 64 66 66 64 63 64 63 62 61 61 59 61
62 62 61 61 61 60 62 62 62 64 65 66 64 64 65 64 66 65 64 63 60 61 61 60 60 64 63 62 61 60 59 59
62 62 61 61 60 59 60 61 62 63 64 65 66 64 64 65 66 66 62 59 59 58 58 61 61 61 61 62 60 58 59 58
62 62 62 60 60 59 59 59 62 62 63 64 66 65 64 65 64 65 61 60 58 60 61 60 60 60 59 60 59 58 58 57
62 62 61 60 60 59 60 61 61 61 62 64 64 65 65 64 64 62 60 58 56 57 57 57 59 60 59 59 59 58 58 58
62 64 61 59 60 60 61 62 61 61 62 62 63 64 66 64 62 61 59 57 57 58 57 57 56 60 57 58 57 57 57 57
61 62 60 60 60 61 62 60 61 63 62 62 63 64 64 64 62 60 59 58 58 59 54 59 57 58 59 56 54 54 56 60
61 61 60 59 62 62 62 60 62 62 62 62 63 64 64 63 61 59 60 59 58 57 58 56 56 59 62 56 53 54 55 57
60 59 59 59 60 60 60 60 61 61 62 64 64 64 63 61 62 60 61 60 58 59 58 58 53 57 55 54 53 54 54 55
59 60 59 58 59 59 61 61 61 62 63 64 65 64 63 62 62 61 61 60 57 59 61 54 55 57 55 53 48 52 54 55
59 59 59 57 57 57 58 60 61 60 61 62 63 64 64 64 62 62 62 62 60 60 61 61 57 54 59 54 50 49 51 52
58 59 58 57 57 56 58 59 59 61 61 62 63 64 64 64 63 63 63 62 62 62 62 62 58 57 54 57 57 55 50 50
58 58 58 60 58 57 56 55 57 59 61 61 62 62 64 64 64 64 63 63 62 62 61 58 60 60 58 54 54 53 52 52
57 57 60 61 60 57 57 55 55 56 58 59 61 62 63 63 64 63 63 63 62 62 60 59 57 57 57 57 55 54 52 51
57 57 59 60 60 59 57 58 59 57 57 58 59 61 61 62 62 62 62 62 61 60 59 58 58 57 56 56 56 57 56 54
57 57 59 60 60 59 60 59 59 60 60 60 61 61 61 60 61 62 62 61 60 60 59 58 57 57 56 56 56 56 55 55

GFSFLT2_sfc_temp_114.txt.gz
Temp
67 69 70 70 70 70 70 70 71 71 71 71 71 71 71 71 71 72 72 72 71 71 70 69 69 68 68 67 66 67 62 64
67 68 70 69 70 69 68 69 69 70 70 70 70 70 70 71 70 70 72 71 70 70 68 68 68 67 67 66 66 66 63 63
65 68 69 70 71 70 69 69 69 68 70 69 67 67 68 69 70 70 71 70 69 69 68 68 67 66 66 65 64 62 64 63
64 65 66 67 68 68 70 70 69 68 68 68 68 66 67 69 69 69 70 69 68 68 67 66 66 65 65 65 63 63 63 63
63 63 63 63 64 66 65 65 67 67 66 67 66 66 66 66 66 67 67 68 66 66 65 64 63 64 62 61 62 62 62 62
62 62 61 61 61 61 62 63 64 66 66 65 64 63 64 65 65 66 66 66 64 62 61 59 61 61 61 61 60 61 60 60
62 62 62 61 60 59 61 61 63 65 66 66 65 63 63 65 65 65 66 65 64 59 58 59 59 60 61 61 60 60 60 60
62 62 62 61 60 59 61 61 62 63 64 65 65 64 64 63 64 64 63 64 62 60 59 58 60 60 59 60 59 58 58 58
61 62 61 61 60 59 59 60 61 62 63 65 66 65 64 64 64 64 62 61 59 59 57 56 58 59 57 57 58 57 58 58
62 64 61 60 60 59 59 61 60 60 62 63 65 65 65 64 64 62 61 59 60 60 58 55 55 57 55 55 56 57 57 57
61 62 60 60 59 59 59 61 61 61 62 62 63 64 64 65 64 62 59 58 59 59 57 59 56 55 57 54 54 56 57 59
61 62 61 60 59 61 61 60 60 61 62 62 62 63 63 64 62 59 60 58 57 59 58 55 55 56 60 55 53 55 55 55
60 60 59 60 61 60 60 59 60 62 62 62 62 63 63 62 60 59 59 59 58 58 59 57 52 55 53 52 52 54 54 55
60 60 59 61 62 62 61 61 61 62 62 62 62 62 61 61 60 60 59 58 57 57 59 55 53 57 53 52 50 53 53 54
60 60 60 60 62 62 60 60 60 60 61 61 62 62 61 61 61 60 59 59 57 58 59 60 55 53 60 54 49 49 51 52
59 59 60 58 58 61 60 60 59 60 60 62 62 62 61 60 61 61 60 59 58 58 60 60 57 55 54 56 56 54 50 49
58 60 60 58 58 59 60 59 60 61 61 61 62 63 62 61 60 60 60 59 58 59 58 57 57 59 55 54 54 53 53 52
59 59 59 58 57 55 56 55 58 59 60 60 61 62 62 62 61 60 60 59 58 58 59 57 56 59 56 55 55 54 53 52
58 59 58 58 57 57 55 55 58 59 60 61 60 61 61 61 62 60 60 60 60 60 59 57 56 57 55 55 56 56 56 54
58 58 58 57 58 57 57 56 56 56 57 59 60 61 62 62 63 62 62 62 61 60 59 59 57 56 56 56 55 55 55 55

GFSFLT2_sfc_temp_117.txt.gz
Temp
75 73 73 70 70 70 70 70 71 70 72 72 72 71 70 71 73 73 73 72 72 70 70 69 69 69 68 67 66 69 78 78
72 72 72 74 75 69 69 69 69 70 70 70 69 69 70 71 71 72 73 72 72 70 69 69 68 67 67 66 66 67 78 77
72 70 71 72 74 72 69 69 69 69 70 69 68 76 75 74 72 70 72 71 70 69 68 68 67 66 66 66 67 77 76 77
70 70 70 70 71 72 74 72 74 75 75 74 74 74 75 76 72 69 70 69 69 68 68 67 68 75 73 67 76 75 75 74
71 69 69 69 69 71 71 70 71 71 74 74 72 71 70 73 73 73 72 70 70 71 71 74 74 74 74 73 73 73 75 75
72 70 68 68 69 69 70 71 69 68 69 70 68 67 69 70 71 71 72 74 71 72 73 72 72 72 72 71 72 73 73 73
72 71 70 68 67 67 67 68 68 68 67 67 67 67 68 65 66 67 69 70 72 70 70 69 70 70 70 71 70 71 70 72
73 71 71 70 68 67 66 66 67 67 66 66 67 67 67 66 65 65 66 67 72 69 69 66 70 71 70 70 70 71 72 71
72 71 71 69 69 68 66 66 67 68 69 66 67 67 65 66 64 64 65 65 65 67 69 68 70 71 70 70 70 69 71 71
73 72 69 69 68 68 64 65 65 66 66 67 66 67 66 65 64 64 64 63 64 64 69 68 69 70 69 70 70 70 70 71
71 70 68 68 69 67 65 64 63 63 64 65 66 66 67 65 64 63 62 61 63 67 69 69 67 69 69 69 70 70 69 71
70 69 68 68 67 65 64 63 62 63 63 64 64 65 65 65 64 62 61 60 63 66 67 69 69 68 69 67 68 69 69 69
68 67 67 66 63 61 61 60 61 61 63 65 66 65 64 63 63 61 61 59 64 67 67 65 66 68 65 64 65 66 66 68
67 67 65 67 67 65 65 63 62 63 65 65 64 64 63 63 62 61 60 60 61 63 66 66 66 66 66 65 58 61 64 65
66 67 64 67 68 67 67 63 62 62 62 62 62 62 63 61 61 61 60 60 60 64 66 66 63 65 67 67 59 60 60 64
67 65 65 65 67 67 65 62 60 62 62 62 62 62 61 61 61 59 59 61 60 65 65 65 64 62 65 67 70 66 63 56
66 65 64 63 63 65 66 61 62 65 64 62 63 63 61 61 59 58 57 60 63 63 65 66 68 67 65 65 65 65 65 64
63 63 62 61 62 64 65 62 61 62 63 61 63 62 61 61 59 58 57 59 60 63 63 65 65 67 69 67 66 65 64 65
62 61 60 60 61 62 63 63 65 65 63 63 60 62 62 60 61 58 58 59 60 61 63 63 64 65 65 66 67 69 67 66
60 60 60 60 61 62 64 66 65 65 64 63 63 61 62 63 62 62 60 60 60 61 63 63 64 63 64 64 64 62 63 63

GFSFLT2_sfc_temp_120.txt.gz
Temp
83 78 76 71 70 71 71 71 72 72 72 72 71 71 71 72 72 73 73 73 72 71 70 69 69 69 68 67 68 70 86 87
83 79 76 79 77 69 69 70 70 70 71 70 70 69 71 71 71 72 73 72 71 70 69 69 68 67 67 67 67 70 86 85
82 80 76 78 77 76 70 69 70 69 71 69 69 82 79 78 75 71 72 71 70 69 68 68 67 67 67 66 67 84 84 85
83 80 78 77 76 76 77 77 80 80 80 79 82 82 81 82 76 70 71 70 69 68 68 67 69 77 76 69 82 83 83 83
83 80 79 76 75 75 76 74 79 81 81 81 81 82 79 81 81 74 74 72 68 70 71 76 79 81 80 79 81 80 83 83
84 81 76 76 76 74 75 78 74 80 81 80 77 76 78 78 80 75 76 73 72 74 72 76 80 81 79 78 80 82 82 82
83 83 77 74 73 72 73 74 78 77 76 77 75 74 76 77 72 76 71 72 75 74 75 79 78 74 77 78 78 79 79 81
85 83 81 76 72 71 71 73 76 73 72 75 76 73 73 69 68 73 68 71 74 72 77 79 78 77 76 77 78 79 79 79
86 85 82 80 76 71 71 72 73 74 72 73 74 72 73 71 67 68 67 66 67 68 74 77 77 77 76 77 78 77 78 77
89 87 82 80 79 79 74 72 71 71 76 70 71 70 70 69 67 66 68 65 64 67 73 75 76 74 74 77 78 77 77 77
85 84 81 79 79 80 78 77 72 71 76 75 69 68 70 67 67 65 66 64 63 64 69 74 73 75 75 76 77 77 76 78
81 82 81 79 78 76 74 71 69 70 69 73 74 69 67 67 66 65 65 63 62 64 66 75 76 77 75 73 75 76 77 76
80 79 78 78 73 70 66 65 65 66 69 70 68 70 67 65 64 64 63 62 62 64 67 73 74 74 71 68 71 74 74 73
78 78 77 78 73 71 70 68 68 69 66 69 67 69 68 66 65 63 62 61 61 64 67 72 74 75 69 69 60 64 70 71
78 79 77 75 77 71 72 70 68 64 64 64 66 71 71 67 65 62 62 61 60 61 66 67 70 72 74 71 64 62 67 71
77 78 75 69 72 69 71 69 68 70 69 67 69 71 69 66 64 63 61 62 61 61 65 69 73 70 74 77 76 75 66 62
75 75 68 68 69 73 73 74 75 73 65 66 67 64 65 67 63 60 61 61 62 62 63 70 73 72 72 72 73 73 73 71
69 69 67 66 67 71 73 74 73 70 66 68 67 62 61 62 60 59 59 59 60 61 63 68 71 73 73 72 72 70 71 72
70 64 64 63 63 69 71 71 72 69 69 68 67 62 60 59 60 58 58 58 59 61 63 69 70 72 71 73 74 74 76 74
73 70 63 63 62 64 68 71 70 68 70 70 66 64 62 62 60 60 57 57 58 60 63 68 70 71 71 72 74 74 76 75

GFSFLT2_sfc_temp_123.txt.gz
Temp
86 81 77 71 71 71 71 72 72 72 72 72 73 71 71 71 71 71 71 71 72 72 70 69 69 69 69 69 69 70 80 86
86 83 81 80 79 70 70 71 70 71 71 70 70 70 70 71 71 71 72 72 72 71 69 68 68 68 68 68 69 70 85 88
86 83 82 82 82 78 71 70 70 69 71 69 69 81 79 77 75 71 72 71 70 69 68 68 67 67 67 67 68 85 86 87
86 84 81 82 81 81 80 80 80 80 80 79 79 81 81 83 77 70 71 70 69 68 67 66 69 74 72 69 80 85 86 85
88 85 83 81 79 78 81 83 82 82 81 82 80 80 80 82 76 79 76 70 75 71 68 72 76 78 76 78 80 83 85 82
89 88 83 81 83 78 78 83 83 83 83 82 80 79 78 79 77 77 79 77 74 74 69 69 76 80 80 79 79 83 84 81
89 88 84 82 81 78 77 83 81 83 84 83 82 80 78 79 76 75 79 77 72 72 71 74 77 80 80 76 78 82 82 82
90 87 86 82 80 75 77 81 85 82 84 81 80 80 79 79 78 75 75 73 70 67 72 69 76 79 76 73 80 81 81 80
90 88 87 83 79 75 76 80 83 83 83 81 80 78 77 78 76 73 72 68 67 66 72 69 73 76 73 73 80 80 80 79
92 93 88 85 83 78 74 76 78 82 80 77 78 77 77 76 75 74 70 67 65 64 66 66 73 77 73 73 79 79 78 78
88 89 88 85 84 84 78 72 72 76 81 79 72 74 75 73 72 70 70 69 64 63 63 65 74 76 73 72 78 78 77 79
85 86 86 86 84 83 83 77 74 71 75 81 77 75 74 72 69 68 70 66 64 63 62 66 77 76 73 72 74 72 76 77
84 83 83 83 83 81 80 76 71 69 71 78 75 72 73 69 69 67 65 63 63 63 62 63 71 73 69 66 69 70 72 73
83 83 83 83 84 83 80 75 67 68 70 74 76 74 70 70 69 65 65 63 62 62 62 62 67 70 69 65 59 62 67 72
81 83 84 82 83 81 71 69 67 64 67 70 74 73 73 70 67 65 63 63 61 61 62 62 64 68 70 69 61 61 62 68
80 82 83 82 81 77 68 66 65 65 67 69 72 73 73 73 71 66 63 63 62 62 62 62 65 66 69 73 74 73 64 59
76 79 80 78 76 76 70 66 72 72 73 69 69 71 73 73 70 66 62 62 62 62 61 62 65 66 70 69 72 75 72 68
77 74 74 70 69 70 68 67 72 72 72 69 70 69 70 71 70 65 64 62 61 61 62 61 63 67 70 73 73 72 68 71
76 78 72 70 68 69 67 69 69 73 71 70 68 64 64 66 65 62 61 62 61 61 61 61 63 66 67 72 75 74 76 75
73 77 76 70 69 67 65 68 70 76 74 71 71 67 64 64 62 61 61 60 59 61 61 61 62 62 65 71 74 74 76 76

GFSFLT2_sfc_temp_126.txt.gz
Temp
77 75 74 71 71 71 71 72 72 72 72 72 72 71 70 71 71 71 71 71 71 72 71 70 70 70 70 69 69 70 72 75
77 76 74 74 73 70 70 71 72 71 71 71 70 69 69 70 70 71 71 71 71 70 69 69 68 67 68 68 68 69 71 72
78 77 76 75 75 73 70 71 71 71 71 70 68 73 71 72 71 70 71 71 70 68 68 67 67 66 66 68 68 72 75 73
80 78 76 76 79 74 73 74 73 73 74 72 73 74 74 76 73 69 70 70 69 68 67 66 68 66 64 67 68 72 75 70
81 79 77 76 76 76 75 76 75 74 75 74 73 76 74 73 71 71 70 68 68 67 66 67 70 70 68 68 70 74 73 71
82 81 77 76 77 75 75 77 76 75 75 75 74 74 72 72 73 70 70 71 68 68 66 67 69 71 71 70 70 73 72 70
81 81 77 77 76 74 75 76 77 76 76 76 76 74 73 73 72 70 69 69 68 69 67 68 69 70 72 70 73 72 72 69
82 80 79 77 76 75 74 75 77 76 77 77 76 75 73 73 72 70 68 68 68 68 66 67 66 65 69 70 71 74 73 69
81 79 79 77 77 77 74 75 76 76 76 76 76 75 74 73 72 70 68 68 67 66 65 65 64 64 69 69 71 73 70 69
82 85 79 78 77 75 73 74 76 76 76 77 75 75 74 72 72 71 69 67 65 65 63 63 63 64 66 66 69 72 69 70
82 81 77 76 76 75 73 73 73 75 76 76 75 74 74 73 72 70 68 66 64 63 63 63 62 62 64 68 67 68 67 73
77 76 76 76 75 75 73 73 72 73 73 74 73 72 72 71 70 69 68 65 64 63 62 62 63 62 68 65 66 69 67 66
78 76 75 74 73 73 73 70 71 71 72 72 73 72 72 71 68 67 68 65 64 64 63 61 61 63 62 60 62 68 68 65
77 77 76 76 76 73 74 74 72 71 70 71 71 72 72 70 67 66 67 64 64 63 63 61 61 61 61 61 54 59 63 66
77 77 77 75 75 75 72 69 67 64 66 67 70 70 69 69 68 65 65 64 62 63 62 62 59 60 62 63 55 53 59 62
75 75 77 78 75 74 68 65 64 65 66 66 68 70 68 68 68 66 64 64 62 63 63 62 62 59 61 68 64 63 57 54
73 73 73 75 74 72 70 66 67 66 66 64 65 68 68 68 67 66 64 64 63 62 62 62 62 61 62 63 64 64 63 59
71 72 71 69 68 67 69 67 66 65 65 64 65 66 67 68 68 66 64 63 62 62 62 62 61 61 63 64 64 63 62 60
69 70 72 69 67 66 66 67 67 67 67 66 65 65 66 66 66 65 63 62 62 62 61 61 61 60 62 64 67 66 68 65
68 68 69 69 67 65 65 65 66 67 65 67 67 66 65 64 64 63 63 62 62 61 61 61 61 61 61 63 65 68 67 66

GFSFLT2_sfc_temp_129.txt.gz
Temp
69 69 71 71 71 71 71 71 71 71 74 72 72 71 71 71 71 71 71 71 71 71 71 70 70 70 70 68 66 70 67 67
69 68 69 68 69 70 70 70 70 71 71 71 70 69 70 70 70 70 71 71 71 71 70 69 69 69 69 67 65 67 67 66
70 69 69 69 69 70 69 70 71 70 71 70 67 69 69 70 69 70 70 70 70 70 69 67 67 67 67 67 65 69 69 69
71 69 69 69 72 69 67 70 70 74 73 71 69 68 68 71 69 69 70 69 69 68 67 67 67 66 66 67 64 68 67 68
72 71 70 70 71 69 69 68 68 70 73 72 71 71 69 69 67 68 67 68 67 67 66 65 66 67 65 66 65 68 66 68
73 73 71 71 69 69 69 69 69 69 70 70 69 69 68 67 67 66 67 67 66 66 64 64 66 69 67 66 66 68 65 66
74 74 73 73 70 69 70 70 70 70 70 71 70 70 69 68 67 67 67 66 66 64 64 65 67 68 68 67 66 67 65 66
75 74 74 73 71 69 70 68 69 70 70 71 71 71 69 69 67 66 66 66 66 66 65 65 65 65 65 65 66 67 67 66
75 74 74 73 72 70 70 71 69 70 72 70 72 71 69 69 68 66 66 65 65 65 65 65 64 64 65 65 65 68 67 66
76 78 74 73 73 71 70 70 71 69 70 70 72 71 70 68 68 67 66 65 65 64 64 62 62 62 62 63 64 67 66 65
69 72 72 72 71 71 70 70 71 71 71 72 70 72 70 69 68 66 66 65 64 63 62 63 61 61 62 62 64 67 66 66
70 69 69 67 69 69 68 67 69 67 67 71 70 71 69 69 67 67 65 63 63 63 62 62 62 62 64 62 62 65 67 63
70 69 66 66 64 66 66 66 66 67 69 69 70 70 69 68 67 66 65 63 64 63 62 61 61 62 60 59 59 62 65 65
68 68 68 67 65 64 65 68 67 69 68 67 67 69 69 67 67 66 66 64 63 62 62 61 60 62 60 58 55 58 62 64
68 67 67 67 67 65 63 63 63 64 67 67 69 67 69 69 67 66 66 65 63 63 62 62 60 60 61 59 54 53 58 60
68 68 67 68 67 65 64 61 60 62 65 67 67 67 67 68 67 66 66 64 63 63 63 62 62 59 60 64 63 62 57 55
66 67 67 65 65 64 62 61 61 61 62 64 66 65 67 66 66 64 64 64 64 63 62 62 62 62 62 61 62 63 63 60
65 64 64 64 64 63 61 62 61 61 61 63 64 65 65 65 65 64 64 63 62 62 62 62 61 61 62 62 63 61 60 60
65 63 63 63 63 62 62 63 63 63 63 62 63 63 64 64 64 64 63 63 63 63 63 62 62 60 61 61 63 63 66 63
63 63 62 64 62 61 62 62 62 64 64 63 65 64 64 65 65 65 64 63 63 62 62 62 62 61 61 60 61 62 65 65

GFSFLT2_sfc_temp_132.txt.gz
Temp
69 70 71 70 70 70 70 70 70 71 71 72 72 71 70 71 71 71 72 71 71 71 71 70 70 70 69 68 65 69 68 67
68 68 70 69 70 69 69 69 69 70 70 71 69 69 69 70 70 71 71 71 71 71 70 69 70 68 67 66 66 66 65 65
67 67 68 68 68 70 69 69 69 70 71 70 67 69 69 69 69 69 70 70 70 70 69 68 68 68 67 65 66 65 65 66
67 67 67 68 70 68 69 70 70 70 73 70 69 67 67 69 68 68 69 69 69 69 68 67 67 66 66 65 64 67 65 65
67 67 67 68 69 69 68 68 68 69 73 71 69 67 66 66 65 67 66 68 66 67 65 64 65 65 66 64 65 65 64 66
69 69 68 68 68 69 70 69 70 69 71 73 70 68 66 65 65 65 65 67 67 67 66 63 63 65 67 66 65 65 63 65
69 69 69 69 68 68 68 69 70 71 69 71 73 70 68 66 65 65 65 67 66 66 64 63 63 64 67 64 66 65 63 64
71 70 70 70 69 68 68 68 68 68 69 71 70 71 70 66 65 65 65 66 66 65 63 63 64 65 64 64 64 66 64 62
71 71 71 70 70 68 68 68 68 68 68 68 71 69 68 67 66 65 65 65 65 63 63 63 63 64 65 63 65 66 64 63
72 75 71 71 72 70 69 69 68 68 69 69 69 69 68 67 66 65 65 65 64 64 63 62 62 62 61 62 63 65 65 63
70 74 71 71 70 69 68 68 69 68 69 69 69 69 69 67 67 66 65 64 64 64 62 63 62 61 62 60 61 63 64 64
67 71 71 70 68 68 67 66 67 66 68 69 69 70 69 68 67 66 65 64 64 63 62 62 63 61 63 61 61 62 64 63
65 64 65 65 64 65 64 65 65 65 65 69 68 70 69 68 66 65 65 65 64 63 61 60 59 61 60 59 59 60 61 62
65 65 65 64 63 65 65 65 65 67 67 65 67 68 68 67 66 65 65 64 63 62 62 60 59 61 59 58 55 56 58 61
65 64 64 65 66 63 61 63 63 64 64 65 65 66 67 67 66 65 65 65 63 62 62 62 59 61 61 58 53 53 55 58
65 66 65 64 63 61 61 62 64 65 66 67 66 65 66 66 66 66 65 65 63 63 63 63 62 59 60 64 60 59 54 52
63 65 65 63 62 62 61 60 59 60 63 65 65 65 68 67 66 65 65 65 64 63 62 62 62 61 61 60 61 58 64 58
62 64 63 62 62 61 60 61 61 59 61 63 63 63 65 67 66 66 65 65 63 63 63 62 61 61 62 62 62 60 59 61
63 63 61 61 60 60 60 60 61 61 60 62 61 61 62 64 65 64 64 64 63 63 63 62 61 61 61 61 63 63 64 64
61 61 59 60 58 58 59 60 60 61 62 61 63 63 63 65 65 64 64 63 63 63 62 62 62 61 61 61 62 63 61 63

GFSFLT2_sfc_temp_135.txt.gz
Temp
68 69 71 71 70 70 70 70 71 71 71 71 72 71 70 71 71 71 72 72 71 72 71 70 70 70 68 67 68 68 66 66
67 68 69 69 70 69 69 69 69 70 70 70 69 69 69 70 70 71 71 71 71 71 70 69 69 68 67 67 66 67 65 65
65 67 67 67 68 69 69 69 69 69 70 69 67 69 68 69 69 70 70 70 70 70 69 68 68 67 67 67 66 64 64 64
65 66 68 67 69 70 70 69 70 70 70 69 70 66 66 68 68 68 69 69 69 69 69 67 67 65 64 66 65 66 65 64
65 66 67 68 69 70 71 69 70 70 68 69 70 66 65 65 64 65 65 68 65 66 65 64 64 63 64 63 64 66 64 64
67 66 66 67 68 70 70 70 69 70 68 68 69 67 64 63 64 64 64 64 64 66 63 62 63 64 64 63 65 64 63 63
66 66 66 67 68 69 70 70 70 70 67 70 69 69 67 64 63 63 63 64 63 66 65 62 62 63 63 63 65 64 64 63
68 67 67 67 67 68 69 70 71 71 70 72 72 71 68 67 63 63 63 66 64 65 64 61 62 64 62 63 63 63 63 61
68 68 68 67 67 67 68 69 70 70 70 71 71 70 69 67 65 64 64 66 65 65 61 61 62 64 63 63 63 64 62 61
70 72 68 68 68 68 68 68 68 68 69 70 71 70 69 67 66 65 65 65 65 63 61 60 60 61 61 62 62 63 63 62
72 70 68 68 69 68 68 68 67 68 68 68 70 70 69 68 67 66 65 65 64 64 62 61 60 60 61 60 61 61 61 63
71 71 70 68 68 68 67 66 67 67 67 68 68 70 69 68 66 65 64 65 64 63 62 60 61 62 63 60 60 60 60 60
65 67 68 68 67 67 66 66 65 65 67 68 68 68 69 67 67 65 65 65 64 64 61 61 58 61 59 58 58 59 59 59
66 68 67 68 68 66 64 65 65 67 66 66 68 68 68 68 67 66 65 64 64 62 62 60 59 61 59 58 53 55 58 59
63 64 64 62 63 62 62 63 63 63 63 64 65 67 67 68 67 66 65 65 63 63 63 62 59 60 60 59 54 53 56 57
61 63 63 64 63 62 62 62 61 64 65 66 65 65 65 67 66 66 65 64 63 63 63 62 62 59 60 61 59 59 55 51
60 61 61 62 62 62 60 59 60 60 63 63 65 64 65 66 65 65 65 65 64 63 62 62 62 61 60 60 58 58 58 56
59 61 60 61 60 61 60 60 60 59 61 63 64 64 63 65 66 65 65 65 64 63 63 63 62 62 62 61 60 59 57 54
61 61 59 59 59 58 58 59 59 59 60 61 63 62 61 62 64 64 65 65 65 64 63 63 62 61 61 61 61 62 64 62
60 60 58 58 58 57 56 57 57 58 60 60 61 61 61 62 63 64 65 65 64 64 63 63 62 61 61 60 60 61 62 63